GFSGBSN_sfc_30mbdewp_000.txt.gz
Dewpoint
54 54 54 53 53 53 53 53 53 53 53 53 53 53 53 53 54 54 54 54 53 53 52 53 54 54 52 33 27 31 33 34 33 26 22 19 18 20 14 15 18 16 18 20 21 21 20
54 54 53 53 53 53 53 52 52 53 53 53 53 53 53 53 54 54 54 54 53 52 52 53 53 53 46 25 30 30 31 29 28 26 23 24 23 23 22 22 22 21 21 21 21 19 18
54 54 53 52 52 52 52 52 52 52 52 52 52 52 52 53 53 53 53 53 52 52 52 53 54 51 34 26 29 30 30 30 28 27 23 22 26 25 26 26 24 21 21 22 21 15 11
53 53 53 52 52 52 52 52 52 52 52 52 52 52 52 52 52 51 51 50 50 51 51 53 54 50 28 30 31 29 29 29 29 28 25 23 26 25 27 24 26 20 18 8 11 14 15
53 53 52 52 52 52 52 52 51 51 51 52 52 52 51 51 51 50 50 50 50 51 52 53 52 46 26 30 29 29 30 28 29 29 29 26 24 22 26 25 18 15 9 11 14 12 12
52 52 52 52 52 53 53 53 52 51 51 51 52 51 50 50 50 51 50 50 51 50 51 47 40 28 27 27 28 29 29 30 29 27 27 24 23 22 17 17 14 15 15 16 16 16 16
52 51 51 52 53 54 54 53 52 51 51 51 51 50 49 49 48 48 49 44 34 35 29 27 25 25 24 26 28 23 23 27 27 25 20 17 23 18 17 19 18 15 16 16 17 17 17
51 50 50 52 53 54 54 53 52 51 51 51 51 49 47 47 47 50 52 42 43 45 26 25 24 23 24 25 23 22 23 23 21 18 16 15 21 20 19 18 17 13 14 18 19 20 20
49 48 49 52 53 54 53 53 52 52 51 51 50 48 47 45 46 52 45 44 48 49 37 24 25 23 24 26 22 22 22 23 20 16 15 13 22 18 18 17 18 14 21 20 20 22 20
48 46 49 52 53 53 53 53 52 52 51 50 50 48 46 45 41 44 44 48 53 54 34 22 24 26 23 22 24 26 22 24 24 19 16 19 20 18 17 17 19 17 22 23 24 23 19
47 46 50 52 53 53 53 52 52 52 51 50 50 49 44 46 48 40 47 49 52 55 33 26 22 26 24 22 21 23 25 25 22 19 19 24 20 15 17 20 21 21 25 25 24 23 22
47 47 51 52 52 53 53 52 52 52 51 49 49 50 47 45 52 48 49 54 53 46 32 24 23 24 24 24 23 22 25 25 23 20 17 15 19 20 20 22 24 25 25 24 24 23 22
48 49 51 52 52 53 53 52 52 52 51 49 49 50 49 51 49 51 55 52 39 35 27 23 24 23 23 23 23 22 23 26 25 24 24 22 20 22 25 24 24 26 25 25 26 23 23
52 52 51 52 53 53 53 52 52 52 51 49 48 51 53 52 53 56 53 41 33 27 25 26 24 23 23 24 25 23 24 24 27 27 24 24 22 22 26 25 26 26 26 26 23 22 24
54 53 52 52 53 53 53 52 52 52 51 49 48 54 48 54 55 55 45 40 31 26 26 24 23 22 24 24 23 23 25 25 27 29 27 28 25 27 27 27 27 26 27 28 25 28 26
53 53 52 52 53 53 53 52 52 52 51 48 51 46 47 54 55 54 45 32 27 27 26 25 23 23 22 24 23 24 25 27 27 30 31 30 28 29 28 30 30 28 29 27 29 27 22
52 53 52 53 54 53 52 52 52 51 51 48 55 44 49 51 54 44 39 30 26 26 28 29 26 24 25 25 27 25 26 29 30 29 30 32 32 31 31 29 27 26 27 29 27 27 25
51 52 53 53 54 53 53 52 52 51 49 47 49 42 49 51 42 39 32 29 28 28 30 30 30 29 29 29 30 28 27 30 32 31 30 35 32 31 31 30 28 27 27 28 27 28 29
51 51 53 54 54 53 53 53 52 51 50 48 40 40 48 51 41 41 32 31 31 29 31 31 31 32 32 31 31 31 31 34 33 31 34 33 32 29 25 27 29 29 28 28 29 32 30
51 51 52 54 54 53 53 53 52 52 51 50 40 40 45 43 38 35 32 32 32 35 33 33 32 33 32 32 32 32 30 33 35 35 35 34 32 31 29 30 30 29 29 29 28 27 27
52 51 52 54 54 53 53 53 52 51 51 52 38 37 39 41 38 36 35 32 32 34 35 33 33 32 31 33 32 29 31 32 33 36 34 35 33 32 32 31 31 30 29 28 27 27 25
52 52 53 53 53 53 53 53 52 51 51 49 43 40 37 34 34 34 33 31 31 32 30 31 31 31 32 32 32 32 33 33 33 33 34 36 34 35 33 33 31 29 31 30 28 26 26
52 53 53 53 53 53 53 53 52 52 51 43 42 40 41 40 37 38 34 31 30 31 36 33 33 34 35 36 38 37 37 37 36 35 36 35 36 34 30 31 32 29 28 29 29 27 26
53 53 53 53 53 53 52 52 52 52 51 52 49 44 40 39 41 35 33 32 32 32 34 35 35 34 37 39 40 40 40 37 35 33 33 34 36 34 31 31 24 26 28 27 27 28 28
53 53 53 53 53 53 52 52 52 52 52 53 49 46 42 36 41 36 35 34 34 34 34 35 35 41 42 40 39 36 33 37 34 32 31 32 37 34 31 29 29 29 28 28 27 28 28
53 53 53 53 53 53 53 52 52 51 52 53 50 51 46 38 39 38 35 35 36 38 39 40 40 40 41 42 39 31 26 28 25 26 34 36 39 36 32 28 24 26 28 29 29 27 37
52 52 53 53 53 53 53 52 52 51 51 53 53 55 49 46 44 41 37 38 38 38 37 39 40 40 41 41 35 32 30 28 26 29 30 33 35 32 31 29 29 31 30 33 29 33 39
52 52 52 53 53 53 53 52 51 51 51 52 52 55 52 46 45 45 44 41 40 40 39 39 39 40 41 37 35 33 33 34 31 29 29 28 29 31 32 29 26 32 33 34 35 39 40
51 51 51 52 52 53 53 52 51 51 50 51 51 55 54 51 46 52 50 49 45 42 42 42 40 39 42 39 38 37 35 36 33 29 30 28 30 30 30 29 32 34 34 37 38 39 40

GFSGBSN_sfc_30mbdewp_003.txt.gz
Dewpoint
54 54 54 53 53 53 53 52 53 53 53 53 53 53 53 53 54 54 54 54 53 53 53 52 53 53 48 38 27 31 33 33 35 32 28 25 23 23 18 19 21 17 17 19 20 20 20
54 54 54 53 52 52 52 52 52 53 53 53 53 53 53 53 54 54 54 54 54 53 52 52 53 52 41 30 29 30 30 30 28 27 23 24 25 26 25 23 23 22 21 21 22 21 20
54 54 53 53 52 52 53 52 52 52 52 52 53 52 52 52 53 53 53 53 52 52 52 52 53 50 47 25 28 29 31 29 29 27 25 23 26 26 27 26 24 23 20 22 21 19 13
54 53 53 53 53 53 53 52 52 52 52 52 52 52 52 52 52 52 51 51 51 52 52 52 52 49 30 29 31 30 29 29 29 30 24 23 24 27 25 26 25 23 22 17 21 19 17
53 52 53 53 53 54 53 53 52 52 52 52 52 52 52 51 51 50 49 50 51 52 53 53 50 46 27 29 29 28 30 29 31 30 30 28 25 25 26 25 24 19 15 15 17 14 14
52 51 52 53 54 54 54 53 52 52 51 52 52 51 50 50 50 50 49 49 51 47 52 49 46 39 27 27 27 28 25 24 29 30 28 29 26 24 21 19 14 15 14 16 18 16 18
51 50 51 53 54 54 54 53 53 52 51 51 50 49 49 49 48 48 47 47 32 37 39 24 24 24 24 25 28 23 23 23 25 28 23 17 22 18 18 19 19 17 15 17 20 21 21
50 49 51 53 54 54 54 53 53 52 51 51 50 48 47 46 47 49 52 46 45 47 32 25 24 23 23 25 24 23 23 23 22 19 17 17 21 19 19 19 19 17 20 21 21 24 24
48 47 52 53 54 53 53 53 53 52 51 50 50 48 47 46 44 53 45 46 52 53 42 23 25 23 24 24 23 23 22 23 23 19 17 16 20 19 18 20 19 18 22 22 23 25 26
47 47 52 53 53 53 53 53 53 53 51 50 49 49 47 45 40 47 46 49 54 56 40 22 26 25 24 22 24 25 24 24 27 20 17 19 20 16 17 20 21 18 24 24 25 25 22
46 48 51 52 53 53 52 52 52 53 52 49 49 50 49 45 52 46 48 52 53 55 32 25 22 25 23 22 21 23 25 24 20 19 19 20 15 14 20 20 22 22 25 26 26 26 25
46 48 51 52 53 53 52 52 52 52 52 49 48 50 51 48 53 49 53 56 54 44 32 23 22 23 24 23 22 24 28 29 25 26 21 18 21 22 20 25 26 27 28 28 30 25 21
48 50 51 52 53 53 53 52 52 52 52 49 48 50 52 54 50 53 57 54 41 34 28 23 23 23 22 23 24 23 27 28 28 27 25 27 22 24 27 25 28 27 28 25 18 22 22
52 52 51 52 53 53 52 52 52 52 51 49 48 48 56 56 56 56 56 43 31 27 24 24 24 22 24 23 24 25 27 26 29 29 28 27 25 27 28 27 26 27 27 27 22 23 23
53 52 52 52 53 53 52 52 52 52 51 49 49 53 53 55 56 56 50 38 31 27 26 25 23 22 24 25 22 25 27 28 29 30 28 30 27 31 27 28 28 27 28 29 26 29 25
52 53 52 52 54 53 52 52 52 51 51 50 49 55 48 54 55 55 45 31 27 27 26 27 25 24 24 25 25 25 27 29 30 31 31 32 30 33 33 32 30 28 30 27 28 25 24
52 52 53 53 54 53 53 53 52 52 50 48 55 48 49 52 55 49 38 26 25 25 29 29 28 27 28 28 29 28 28 31 31 31 33 34 33 31 32 31 30 27 27 29 30 29 29
51 52 53 53 54 53 53 53 52 52 50 51 52 42 48 53 44 46 33 29 28 28 30 30 32 32 30 31 30 29 31 32 33 32 34 33 32 30 29 32 32 29 30 29 28 31 30
51 51 52 53 54 53 53 53 52 52 51 48 48 46 52 50 34 36 31 31 34 32 32 32 32 32 32 32 30 32 32 34 32 35 33 33 30 28 25 29 32 31 31 32 31 30 28
51 51 52 53 54 53 53 52 52 52 51 50 47 36 45 47 44 34 31 31 32 35 33 33 32 33 33 32 34 31 31 35 35 35 35 34 32 30 26 29 32 31 31 31 31 28 27
51 51 51 53 54 53 53 53 52 52 51 52 46 37 40 37 36 36 36 33 33 35 34 33 33 32 32 32 31 31 34 35 36 36 35 34 32 33 33 33 33 32 31 31 30 29 27
52 52 53 53 53 53 53 53 52 52 51 49 43 43 44 37 36 35 33 33 31 31 31 33 31 34 35 34 35 36 36 36 35 35 36 38 33 35 33 34 34 31 31 30 30 29 29
52 53 53 53 53 53 53 52 52 52 52 51 46 44 45 42 39 36 36 33 32 33 35 33 34 34 34 38 38 39 39 39 38 37 36 36 34 34 30 34 32 29 26 28 28 27 28
52 52 53 53 53 53 52 52 53 52 52 53 51 49 38 37 39 37 35 33 32 35 33 35 34 34 41 41 40 39 36 38 39 36 37 33 33 34 31 32 25 27 29 27 29 29 31
53 52 52 53 53 53 52 52 52 52 52 52 52 49 40 36 44 40 37 35 35 36 36 36 37 42 42 41 35 32 29 31 29 33 38 38 35 32 30 29 29 30 29 29 27 27 37
52 53 52 52 53 53 53 53 52 52 51 52 55 52 45 38 37 41 37 37 37 37 37 38 43 42 41 40 35 29 23 27 25 26 38 38 37 31 30 26 23 24 29 34 32 28 37
52 52 53 52 52 52 53 53 52 51 51 52 52 57 51 43 44 42 39 38 41 38 37 39 40 39 42 38 33 30 28 31 26 26 27 29 32 29 29 28 28 30 31 37 27 30 38
52 52 52 52 52 52 53 53 53 52 51 52 53 56 51 46 46 45 45 42 42 41 37 39 37 37 40 36 34 32 31 32 33 30 27 28 27 29 31 29 24 33 33 30 33 38 38
51 52 52 52 52 52 53 53 52 52 51 52 50 56 55 49 48 52 51 51 48 47 44 42 39 40 40 37 36 34 34 36 32 29 31 28 29 26 30 28 32 34 33 35 35 36 39

GFSGBSN_sfc_30mbdewp_006.txt.gz
Dewpoint
54 54 54 53 53 53 53 52 52 52 53 53 53 53 54 53 54 54 54 54 54 54 53 52 53 51 44 32 27 30 34 32 30 28 25 24 25 25 24 22 20 17 17 19 19 19 19
54 54 54 53 53 53 53 52 52 52 52 52 53 53 53 53 53 54 54 54 54 53 52 52 52 52 37 26 29 29 31 30 28 27 26 23 24 26 25 22 22 23 22 22 21 20 21
54 53 53 53 53 53 53 53 52 52 52 52 52 52 52 52 53 53 53 54 54 53 52 52 51 49 44 25 28 31 30 29 28 29 25 23 24 25 26 26 26 23 21 21 21 21 19
53 52 53 53 54 53 54 53 52 52 52 52 52 52 52 51 51 52 52 53 53 52 52 52 51 48 29 30 31 29 30 29 31 31 29 25 25 24 26 27 28 24 20 18 19 22 17
52 52 52 54 54 54 54 54 53 52 52 52 52 51 51 51 51 51 51 51 51 52 52 52 46 43 30 29 28 28 28 28 28 31 31 30 27 25 25 19 17 18 13 15 17 18 16
51 51 52 54 54 54 54 54 53 52 52 52 51 51 50 50 50 49 47 49 51 52 51 50 46 36 31 26 27 28 24 23 23 28 29 28 27 23 20 18 13 16 14 16 18 19 23
50 49 53 54 54 54 54 54 53 52 52 52 51 49 48 48 48 49 45 45 40 33 37 24 24 25 23 25 28 23 23 24 25 26 24 21 20 17 17 18 19 17 19 21 21 22 25
48 49 53 54 54 54 54 54 53 52 51 50 50 49 47 46 46 49 52 44 46 46 30 25 24 23 23 25 24 24 23 22 24 19 17 21 20 19 19 22 20 19 21 21 23 24 26
46 49 52 53 54 53 53 53 53 53 51 50 49 48 47 45 44 50 46 47 54 52 39 23 24 23 23 24 23 24 22 23 23 20 17 20 19 18 19 21 19 18 21 22 24 26 27
45 49 52 53 53 53 53 53 53 53 51 49 49 49 48 47 38 49 45 48 52 54 33 22 25 26 25 23 24 25 24 25 22 19 19 20 18 15 21 20 21 20 21 24 25 25 22
45 49 51 52 53 53 52 52 52 52 51 49 49 50 49 49 50 44 48 52 56 51 25 25 22 25 24 21 22 23 26 25 21 23 19 20 15 18 20 20 24 23 24 27 27 27 25
45 49 51 52 53 53 52 52 52 52 51 49 48 49 51 52 50 49 53 57 51 41 28 22 22 23 24 25 22 26 31 31 31 29 27 20 21 22 22 25 27 28 28 29 29 26 21
48 50 51 52 53 53 52 52 52 51 51 49 47 48 51 55 47 54 57 50 39 26 31 23 23 22 25 23 24 28 29 29 27 20 25 29 25 25 28 26 27 28 28 23 16 21 22
51 51 51 52 53 52 52 52 52 51 51 49 47 48 56 56 56 55 51 40 28 30 25 25 24 23 24 23 23 28 27 27 30 30 30 29 24 30 28 27 27 27 29 25 19 22 23
52 52 52 52 53 52 52 52 52 51 51 49 50 54 51 52 56 57 44 29 27 28 26 24 26 23 25 25 23 27 29 29 30 31 28 30 27 32 31 31 29 28 27 29 26 27 25
53 52 52 52 53 53 53 52 52 51 51 48 48 52 45 53 54 51 36 27 25 26 28 30 25 26 25 28 27 27 28 31 30 32 33 33 30 33 32 33 31 29 30 27 29 24 25
52 52 52 53 53 53 53 52 52 51 51 48 54 40 44 53 53 42 28 25 24 26 29 29 29 29 30 30 31 29 30 32 32 31 34 33 32 27 30 31 30 27 30 30 31 31 29
51 52 52 53 53 53 52 52 52 51 50 49 50 32 42 50 38 43 29 28 28 29 33 32 33 32 31 31 31 31 31 32 33 34 33 33 31 29 27 32 33 31 31 31 28 28 29
51 51 52 53 53 53 52 52 52 52 51 47 44 43 49 47 28 31 32 32 34 32 32 33 32 32 33 33 30 32 33 34 32 33 32 33 29 25 22 25 31 31 31 31 32 30 28
51 51 51 53 53 53 52 52 52 51 51 50 41 34 41 43 43 32 31 31 30 34 33 34 32 33 33 33 32 29 32 36 35 35 35 34 32 28 25 25 32 31 31 31 30 28 28
51 50 51 53 53 53 52 52 52 51 51 51 43 35 41 34 35 34 36 35 33 33 33 33 33 34 32 31 31 35 36 36 36 37 35 34 31 31 32 32 33 32 33 33 32 31 29
51 51 51 53 53 52 52 51 51 51 52 44 40 41 41 40 40 32 34 31 31 31 33 32 34 36 35 35 35 35 36 36 35 36 36 37 33 34 32 34 34 33 34 33 32 31 29
52 52 53 53 53 53 52 51 52 51 53 47 48 47 39 39 36 33 35 32 32 34 35 34 34 33 33 38 39 39 39 38 37 36 36 36 34 33 27 33 33 30 31 29 28 28 28
51 52 53 53 53 53 51 51 52 51 51 52 49 45 35 35 36 33 36 35 34 34 35 35 35 33 39 41 39 37 34 34 36 34 38 33 33 32 30 32 25 27 30 30 29 29 30
52 52 52 53 53 53 52 52 52 51 51 51 53 47 39 37 41 39 36 36 36 36 35 36 38 40 42 38 32 28 25 26 26 36 38 37 34 31 29 28 28 29 29 28 28 30 34
52 53 52 52 53 53 53 53 52 51 51 53 54 50 42 37 36 41 37 37 36 35 36 39 42 43 41 37 32 27 22 27 24 27 38 36 35 29 28 26 22 23 27 33 35 29 36
52 52 53 52 52 52 53 53 52 51 51 51 52 55 47 40 43 42 38 37 40 38 36 38 41 39 40 36 32 29 27 31 26 25 26 28 30 28 26 27 27 28 30 35 26 24 36
51 52 52 52 52 52 52 53 53 52 51 51 52 55 48 44 45 46 45 41 42 40 36 38 37 37 38 35 33 31 30 30 32 30 27 25 25 27 29 27 24 33 33 30 31 35 35
51 52 52 52 52 52 53 53 53 52 51 52 48 55 54 47 44 52 51 50 48 44 42 42 38 37 38 35 35 32 31 34 31 28 32 28 28 26 27 26 31 33 33 35 36 35 36

GFSGBSN_sfc_30mbdewp_009.txt.gz
Dewpoint
54 54 54 53 53 53 53 53 52 52 52 53 53 53 54 53 53 54 54 54 54 53 53 52 53 54 43 28 27 30 33 32 29 28 24 24 25 25 23 23 20 17 17 19 19 19 19
54 53 53 54 54 54 54 53 52 52 52 52 52 53 53 53 53 54 54 53 53 53 53 52 53 52 37 23 29 29 31 30 29 29 27 23 24 26 25 26 21 23 23 22 22 20 21
53 53 53 54 54 54 54 53 53 52 52 52 52 52 52 52 53 53 53 53 53 53 52 52 52 48 39 26 29 31 30 30 30 30 28 25 25 24 26 25 27 24 22 22 22 22 21
53 52 53 54 54 54 54 54 53 52 52 52 52 52 52 51 51 51 51 52 53 53 52 51 50 45 27 31 31 29 29 29 29 29 31 29 27 25 26 27 26 20 18 14 18 22 18
52 51 53 54 54 54 55 54 52 52 52 52 52 51 51 51 50 50 51 52 52 53 52 51 45 41 28 33 28 29 25 22 23 27 29 31 28 25 24 16 15 18 13 15 17 22 23
50 51 53 54 54 54 55 54 53 52 52 51 51 50 50 50 50 50 51 52 53 52 49 47 44 31 28 25 27 24 24 24 22 25 27 27 26 21 19 18 13 16 13 18 18 21 26
49 50 53 54 54 54 55 54 53 52 51 50 50 49 49 48 47 50 50 48 39 29 36 25 24 24 23 24 28 24 24 24 26 23 20 24 20 17 18 19 19 18 20 21 22 22 25
47 50 53 54 54 54 54 54 53 52 51 50 49 49 47 46 45 51 47 44 45 44 26 29 24 23 24 25 23 24 23 23 23 19 18 22 18 19 21 22 20 20 20 19 24 25 27
46 50 52 54 54 54 53 53 53 52 51 50 50 49 47 45 47 47 47 49 54 50 30 24 25 24 24 24 22 24 23 24 24 19 20 19 19 18 21 20 19 20 19 21 22 26 26
45 49 52 53 53 53 53 52 53 52 51 50 50 50 47 47 46 48 44 49 52 49 25 23 24 26 24 24 23 26 25 25 22 18 20 21 17 20 20 21 23 21 21 23 24 26 22
45 49 51 53 53 52 52 52 52 52 51 49 49 50 47 51 48 44 48 53 56 46 12 24 22 26 25 21 22 27 32 25 25 26 19 20 16 21 22 23 25 24 28 27 28 27 25
45 49 51 53 53 52 52 52 52 51 50 49 48 50 49 52 47 49 53 56 49 36 20 21 23 23 24 25 25 30 31 32 32 28 28 26 23 24 24 25 28 29 29 28 29 26 21
47 50 51 52 53 52 52 52 52 51 50 49 47 53 52 55 41 54 56 46 36 23 30 22 23 22 25 23 27 29 30 30 27 17 26 30 29 29 28 27 29 29 28 18 16 19 21
50 51 51 52 53 52 52 52 51 51 50 48 47 52 56 55 56 55 47 37 23 29 25 26 24 24 22 23 27 29 29 28 31 30 30 29 21 30 30 27 27 28 28 23 15 19 22
52 51 51 52 53 52 52 52 51 51 50 48 51 54 47 51 55 54 40 28 25 27 26 25 25 24 25 27 26 28 29 30 31 32 27 30 26 32 32 32 29 28 27 30 26 26 25
52 52 52 52 53 52 52 52 51 51 50 49 51 46 45 53 55 44 31 27 25 27 29 30 24 27 24 29 27 27 29 31 30 35 33 33 29 32 31 32 32 29 30 27 29 24 22
51 52 52 53 53 52 52 52 51 51 50 51 54 32 42 54 48 36 25 24 24 28 30 30 29 29 30 30 30 29 30 31 32 32 33 31 31 25 29 28 29 29 30 30 31 30 27
50 51 52 53 53 52 52 52 51 51 50 53 45 30 43 47 38 38 28 27 31 32 34 32 33 32 32 31 32 31 31 31 33 34 31 34 31 26 26 31 33 32 31 30 27 26 28
50 51 51 53 53 52 52 52 51 51 51 48 42 41 46 41 32 29 32 33 34 32 33 32 31 33 35 33 30 32 33 34 33 34 32 32 29 23 20 25 27 30 32 32 31 29 28
50 51 51 52 53 52 52 51 51 51 51 50 38 30 38 41 40 31 30 31 31 35 33 34 33 34 33 32 32 31 34 37 37 35 36 33 31 27 23 23 28 29 31 32 31 29 28
51 50 50 52 53 52 52 50 50 51 51 48 40 36 41 33 34 35 35 34 31 31 33 34 35 35 32 31 31 35 36 36 36 37 36 34 31 31 31 31 32 32 32 33 32 32 30
51 50 50 52 53 52 50 50 51 51 52 42 40 39 40 40 40 32 33 31 34 33 33 33 34 35 35 34 33 34 35 35 34 36 36 37 31 33 31 33 33 32 33 33 33 33 32
51 50 50 53 53 52 50 50 50 51 51 45 47 45 36 38 34 32 34 32 33 34 35 34 35 33 32 37 38 38 38 37 36 35 35 35 33 33 26 31 31 24 27 30 31 29 28
51 52 52 53 53 51 50 50 51 50 52 49 49 40 33 34 33 33 36 34 34 34 34 35 34 32 37 41 38 36 34 32 33 33 37 32 33 31 28 31 23 23 30 29 29 29 30
51 51 52 53 53 52 51 51 51 50 52 52 51 43 37 34 38 39 36 35 35 36 35 36 39 39 40 35 33 29 24 21 26 38 37 35 32 30 29 27 26 27 26 27 27 27 32
51 51 52 53 53 53 53 53 52 51 51 53 53 45 40 35 35 40 36 37 35 35 35 39 42 42 39 34 30 27 21 25 24 26 36 35 32 31 27 25 23 23 25 30 35 30 34
52 52 52 52 52 53 53 53 52 51 51 52 53 51 44 37 40 42 37 35 38 37 35 37 40 39 39 35 32 29 27 30 24 24 25 29 30 29 27 25 26 28 30 32 28 27 32
51 51 52 52 52 52 52 53 53 52 51 51 52 54 47 42 44 46 44 41 41 38 36 38 37 37 37 34 31 30 28 29 31 29 27 25 24 25 27 25 23 32 33 29 31 33 35
51 51 51 52 52 52 52 52 53 52 51 51 50 54 52 45 43 51 51 49 45 42 40 40 37 36 37 35 34 30 30 31 30 28 31 28 28 26 27 26 30 31 33 34 36 36 36

GFSGBSN_sfc_30mbdewp_012.txt.gz
Dewpoint
54 53 53 54 54 54 54 54 53 52 52 52 53 53 54 53 52 53 53 54 53 54 54 53 52 54 48 27 27 30 34 31 31 29 24 25 25 25 22 22 21 18 17 19 19 18 18
54 53 53 54 54 54 54 54 53 52 52 52 52 53 53 53 54 54 54 54 53 53 52 51 53 54 37 24 29 30 30 30 29 29 28 24 25 26 26 25 22 23 23 22 22 21 21
53 52 53 54 54 54 54 54 53 53 52 52 52 52 52 52 53 53 53 53 53 52 52 52 53 51 30 26 31 30 28 30 30 29 29 26 25 24 26 25 28 24 19 18 20 21 21
52 52 53 54 54 54 55 54 53 52 52 52 52 52 52 52 52 52 52 52 52 52 53 52 52 45 26 31 33 28 25 22 25 30 30 30 28 26 24 26 21 17 16 14 19 21 17
51 51 54 54 54 54 55 54 53 52 52 52 51 51 51 51 51 51 51 51 52 52 52 52 44 37 26 31 27 28 24 22 24 26 31 30 27 24 21 14 14 17 11 15 17 23 25
50 51 54 54 54 54 55 54 53 52 52 51 51 50 49 50 49 50 51 51 51 52 49 46 39 25 25 23 26 26 25 25 24 26 26 25 23 17 19 17 10 16 14 18 18 21 25
48 51 53 54 54 54 55 54 53 52 52 51 50 48 48 48 48 51 50 47 32 27 31 23 23 24 23 24 27 25 25 25 24 21 18 25 18 16 18 20 19 18 19 20 21 23 26
47 50 53 55 54 54 54 54 53 52 51 50 49 49 48 47 48 50 48 44 45 42 23 27 24 23 24 26 23 25 25 23 22 18 18 21 17 19 22 21 19 19 19 17 22 25 27
45 50 52 54 54 53 53 53 53 52 51 50 50 49 47 46 48 48 48 50 55 47 23 23 25 25 24 24 23 24 24 26 22 18 21 20 18 22 21 22 23 23 19 20 22 25 26
45 49 51 53 53 53 52 53 52 52 51 50 50 48 48 45 44 48 43 49 54 41 22 22 23 24 24 24 22 28 31 25 22 18 21 21 19 21 25 23 23 22 22 25 26 26 21
45 48 51 53 53 52 52 52 52 51 50 49 49 49 52 45 47 45 48 54 55 39 6 22 22 26 26 22 23 29 33 25 27 26 21 18 20 24 25 24 25 25 28 29 28 27 25
45 49 51 52 53 52 52 52 52 51 50 49 50 49 50 47 47 50 54 53 46 27 15 21 23 24 23 26 27 30 31 32 31 28 30 28 25 25 26 26 28 29 29 26 28 26 21
46 50 51 52 53 52 52 52 52 51 50 48 51 53 53 53 41 54 53 44 31 20 30 22 22 23 23 24 28 29 29 30 27 17 26 30 29 31 29 28 29 29 25 16 18 19 20
50 51 51 52 53 52 52 52 52 51 49 48 52 53 54 54 55 54 44 35 21 28 25 26 23 25 23 24 28 30 29 28 31 30 30 28 20 30 31 28 27 28 28 23 14 18 21
52 51 51 52 53 52 52 51 51 51 49 50 54 49 46 51 55 49 39 26 24 27 26 25 26 24 25 28 27 28 30 30 32 33 28 30 25 32 33 33 30 28 27 29 26 25 25
51 52 52 52 53 52 52 51 51 51 50 51 52 41 45 52 53 40 30 27 25 29 29 30 24 27 24 29 27 27 29 31 30 34 33 32 27 31 31 32 31 29 31 26 28 22 20
50 51 52 52 53 52 52 51 51 51 50 53 49 32 41 53 45 32 25 24 25 32 31 30 29 29 30 30 30 29 30 31 32 33 33 31 29 23 28 29 29 30 29 30 30 29 25
50 50 51 52 53 52 52 51 51 51 50 50 39 28 44 47 32 34 27 28 32 33 34 33 33 32 31 32 31 31 31 31 33 34 31 33 30 23 24 29 33 32 29 28 22 23 28
50 50 50 51 53 52 52 51 50 51 51 46 40 40 44 41 28 29 32 33 34 32 33 31 32 34 34 32 30 32 33 36 36 34 33 32 28 20 13 23 29 30 32 31 29 29 27
50 50 50 50 52 52 51 50 50 51 51 44 37 35 38 41 38 31 30 31 32 35 33 36 34 34 33 32 34 32 34 36 38 36 35 34 30 25 20 22 27 28 31 32 31 29 27
50 50 50 50 52 52 50 50 50 51 51 44 38 37 40 32 34 34 34 31 32 30 33 35 34 34 32 31 32 34 35 35 35 37 36 34 31 31 30 30 31 31 32 32 31 31 30
50 50 50 50 52 51 50 49 50 51 51 42 38 38 40 39 38 32 32 31 34 33 32 33 33 35 35 32 32 32 35 34 32 35 35 36 30 32 30 32 32 31 32 32 33 33 33
50 50 49 50 52 51 50 49 50 51 50 45 46 44 38 37 33 30 32 32 32 34 35 34 35 32 31 35 37 37 38 37 36 35 34 35 33 31 21 30 30 20 23 29 30 31 30
50 51 50 52 53 51 50 50 50 51 51 47 47 39 31 34 31 34 35 34 34 34 33 35 34 32 35 40 37 35 32 29 32 34 37 33 33 31 28 29 22 22 29 29 28 28 29
50 51 52 52 53 52 51 51 51 50 53 51 49 41 34 34 37 38 35 35 35 35 36 35 40 40 38 35 34 29 25 20 28 36 36 34 32 29 28 26 26 27 24 27 27 27 30
50 50 51 53 53 53 53 53 51 51 52 53 51 44 38 32 34 37 36 36 34 33 35 40 42 41 37 32 31 26 20 24 22 26 34 33 31 31 27 24 22 24 25 29 34 27 34
50 50 51 51 52 52 53 53 52 51 51 53 53 49 41 33 39 41 35 35 36 35 34 36 40 39 38 34 32 29 27 29 24 23 24 29 30 29 28 26 27 29 29 32 27 26 33
51 51 52 52 52 52 52 53 53 51 51 52 52 52 45 39 42 45 42 39 40 37 34 37 37 37 36 34 32 30 28 28 29 28 26 24 24 24 26 25 22 30 31 29 30 33 34
50 51 51 52 52 52 52 52 53 52 51 50 50 52 50 43 41 50 50 49 42 40 38 38 36 36 37 34 33 29 29 29 28 26 31 28 28 26 28 28 30 31 32 33 34 36 36

GFSGBSN_sfc_30mbdewp_015.txt.gz
Dewpoint
54 54 53 54 54 55 54 54 54 53 52 52 52 53 54 52 52 53 53 53 53 53 54 54 54 54 47 27 26 30 34 31 31 29 25 25 25 25 22 22 22 18 18 19 19 17 17
54 53 53 54 55 54 54 54 54 53 52 52 52 52 53 53 54 54 54 54 53 53 53 53 53 53 32 25 29 31 30 29 28 29 27 26 26 27 27 24 24 24 23 22 22 21 21
53 52 53 54 54 54 55 54 53 53 52 52 52 52 52 53 53 53 53 53 53 53 53 52 53 51 28 27 32 31 25 29 26 30 28 26 27 25 27 25 28 22 17 19 21 22 19
53 52 54 54 54 54 55 54 53 53 52 52 52 52 52 52 52 52 52 52 52 52 52 52 53 46 27 31 35 27 25 22 26 30 30 30 28 27 24 26 20 17 16 16 19 23 24
52 51 54 54 54 54 55 54 53 52 52 51 51 51 51 51 51 51 51 51 51 51 52 53 44 32 26 29 26 28 25 23 24 29 29 29 26 23 22 14 14 18 10 15 18 24 26
50 51 54 54 54 55 55 54 53 52 52 51 51 50 50 51 51 51 51 51 50 50 49 47 36 24 25 23 25 26 26 27 25 24 24 25 22 19 21 17 7 15 15 18 18 22 26
48 51 53 55 54 54 55 54 53 52 52 51 51 50 49 49 50 51 48 44 29 26 30 22 24 23 23 25 26 26 25 25 24 22 20 24 19 17 20 20 19 18 18 20 21 24 26
47 51 53 54 54 54 54 54 53 52 51 51 50 48 48 48 49 50 48 41 39 38 22 26 24 23 24 25 25 27 27 22 21 18 21 20 18 20 22 22 20 19 19 18 22 25 27
46 50 52 54 53 53 54 53 53 52 51 50 49 48 48 48 50 49 49 49 53 46 22 24 26 25 24 26 27 28 27 26 20 21 21 19 18 22 21 24 24 24 20 21 22 25 27
45 49 51 53 53 52 53 53 53 52 51 49 49 48 51 48 44 46 44 49 54 39 20 22 23 24 25 24 24 32 33 26 24 20 23 19 22 24 25 24 25 21 23 28 27 26 21
45 49 51 53 52 52 52 52 52 52 50 49 49 51 49 41 45 43 47 53 55 35 1 22 23 26 27 25 25 29 33 30 26 25 23 17 23 25 25 24 26 27 29 29 28 27 26
45 50 51 52 52 52 52 52 52 51 50 49 51 49 50 44 48 50 54 51 44 20 12 21 24 24 25 28 30 31 32 32 30 29 30 27 29 27 27 26 28 30 29 26 28 27 22
47 50 51 52 52 52 52 52 52 51 50 50 54 53 52 49 41 53 51 42 24 16 29 22 21 24 25 27 29 30 30 32 28 18 25 28 29 31 29 27 29 30 24 17 19 20 20
50 51 51 52 52 52 52 52 51 51 49 50 53 52 53 54 54 53 43 33 19 28 25 26 24 26 23 26 29 30 29 28 33 30 30 26 21 30 32 29 27 29 28 23 12 17 21
51 51 51 52 52 52 51 51 51 51 50 52 52 45 47 51 54 46 38 25 24 26 26 25 26 24 26 29 28 29 30 30 32 34 27 28 25 32 33 33 30 28 28 29 26 25 26
50 51 51 52 52 52 51 51 51 51 50 52 43 42 45 51 51 38 30 26 25 30 29 28 24 27 25 29 27 28 29 31 30 34 33 32 25 30 30 32 32 30 31 26 29 21 18
49 50 51 51 52 52 51 51 51 51 50 53 41 37 42 52 42 32 25 24 27 33 33 29 29 29 29 29 30 29 29 31 32 33 33 31 28 23 29 30 29 30 29 30 30 30 25
49 50 50 51 52 52 52 50 50 50 50 46 36 34 45 47 31 33 27 27 32 33 34 33 33 32 31 32 31 31 31 31 34 34 32 33 30 19 23 31 33 32 29 27 21 21 28
49 49 50 50 50 52 51 50 50 51 51 45 39 40 43 41 27 30 33 33 34 32 33 31 33 34 34 32 30 32 33 36 36 34 33 32 28 17 12 25 28 30 32 30 29 29 27
49 50 50 49 50 52 50 50 50 51 51 42 36 36 38 39 37 31 31 31 32 34 34 35 34 34 33 32 34 33 34 36 37 36 35 34 30 24 14 16 26 26 29 31 31 29 26
49 50 50 49 50 50 50 50 50 51 51 42 39 38 39 31 33 33 33 31 31 30 34 35 33 32 31 30 32 33 35 34 35 37 37 34 30 31 30 30 31 30 30 31 31 31 29
50 50 50 49 50 50 50 49 50 51 50 42 37 38 39 38 36 32 32 32 32 33 32 33 33 34 33 30 30 30 34 33 31 35 35 35 29 32 30 31 31 29 30 31 32 32 32
50 50 49 49 51 50 50 50 50 52 49 43 45 42 38 36 32 31 32 33 33 34 35 35 35 33 31 34 36 37 37 37 36 34 34 34 33 30 20 29 28 22 23 28 28 30 29
50 50 49 50 52 51 50 50 50 52 50 47 45 37 34 33 31 33 34 34 34 33 33 35 34 32 34 39 36 33 30 31 32 36 36 34 33 30 27 28 17 22 29 29 28 28 30
50 51 51 52 53 51 52 52 50 51 52 48 46 38 33 33 36 36 35 35 35 36 35 36 40 39 37 35 33 27 25 21 30 35 35 34 33 28 27 25 26 25 25 26 27 26 28
50 50 51 52 53 53 53 52 51 51 52 52 49 43 36 32 35 37 35 35 33 33 36 40 42 40 36 33 31 23 16 22 22 27 33 33 31 31 28 25 23 25 26 30 33 26 33
49 50 51 52 53 52 52 53 52 51 52 52 52 49 39 32 38 38 35 35 36 35 34 37 40 38 37 33 31 28 27 28 23 22 24 29 30 29 28 26 28 30 30 31 28 29 34
49 50 50 51 51 52 52 53 52 51 50 52 52 51 43 38 41 44 41 37 38 36 33 37 38 37 36 35 33 31 29 29 28 27 25 24 24 24 27 25 22 29 30 29 32 36 35
50 50 51 52 52 51 52 52 53 52 51 50 49 50 48 41 41 49 50 46 41 39 38 38 35 36 38 34 32 30 30 28 28 26 30 27 28 27 29 29 30 30 32 34 36 37 38

GFSGBSN_sfc_30mbdewp_021.txt.gz
Dewpoint
51 52 54 54 53 55 55 55 54 54 55 54 53 53 53 53 52 52 53 53 53 53 54 54 54 54 51 34 23 27 29 30 32 26 21 16 13 10 5 5 4 7 7 5 6 8 10
52 54 54 54 54 55 55 55 54 54 54 53 53 53 53 54 54 53 53 53 53 53 53 54 54 54 42 24 27 26 25 24 26 22 18 17 16 14 7 9 12 15 16 18 16 16 16
54 54 54 53 55 55 55 55 55 54 53 53 53 52 52 53 53 54 54 54 54 53 53 53 54 49 37 25 26 24 23 24 25 26 20 23 20 16 17 20 20 18 16 19 19 20 19
54 53 52 53 55 55 55 55 54 53 53 53 52 52 52 52 53 53 53 53 53 53 53 53 53 45 28 27 27 23 21 22 26 29 27 26 25 24 22 23 17 15 16 15 18 19 22
53 53 51 54 55 55 55 55 54 53 52 52 52 52 52 52 52 52 52 52 52 52 53 52 48 45 22 27 23 21 23 22 27 30 28 26 26 21 24 18 14 12 10 7 17 19 18
53 52 52 54 55 54 55 54 53 52 52 51 51 51 51 51 51 51 51 51 52 51 49 43 36 27 20 21 22 24 24 28 26 28 26 24 21 19 13 11 8 7 5 10 8 18 14
52 49 52 54 54 55 55 54 53 52 52 51 51 50 50 51 51 51 50 43 35 36 29 24 20 22 20 22 26 23 25 25 24 24 21 21 18 15 15 15 14 11 11 11 13 19 18
51 48 52 54 54 54 54 54 53 52 52 51 51 50 49 50 51 51 53 39 40 35 23 25 25 26 27 26 20 24 27 23 22 17 19 14 17 20 20 19 18 17 16 15 19 21 21
50 47 51 54 53 53 54 54 53 52 51 51 50 51 51 49 50 53 46 46 49 43 21 24 25 23 25 25 25 25 26 21 15 13 11 17 20 21 22 21 20 20 19 22 20 21 22
49 46 51 53 53 52 52 53 53 51 50 50 50 51 50 50 49 47 44 49 52 48 20 17 20 22 24 25 25 29 30 25 19 13 15 20 24 23 22 23 24 19 25 25 23 21 16
48 47 51 52 52 52 52 52 52 51 50 50 50 51 50 49 44 38 47 52 54 49 16 22 22 27 24 25 25 27 30 25 19 20 23 22 23 24 23 25 26 24 28 26 26 23 19
47 49 51 52 52 52 52 52 52 51 49 49 51 50 49 49 52 50 51 54 52 33 18 21 22 24 25 26 26 28 28 29 29 22 22 24 27 27 27 27 27 28 28 26 27 24 20
46 50 51 52 52 52 52 52 51 50 51 52 51 52 50 49 42 54 56 48 22 25 23 20 21 24 24 25 27 26 26 27 25 23 23 23 26 29 29 26 28 27 24 22 23 22 21
48 50 51 52 52 52 52 52 51 50 51 52 52 53 54 54 53 57 49 32 26 24 19 22 22 23 24 25 27 27 25 25 28 25 21 21 24 26 29 28 27 27 26 27 19 18 18
50 50 51 52 52 51 52 50 51 51 51 50 51 53 51 56 57 54 37 30 23 22 23 22 22 21 23 26 26 27 27 27 29 30 25 23 24 29 30 30 29 27 27 28 28 29 25
51 51 51 51 52 52 51 50 50 50 51 51 42 41 44 57 57 50 37 30 27 27 25 22 21 25 22 24 25 26 27 30 29 30 30 27 25 25 27 30 31 28 29 27 26 23 14
50 50 50 49 51 52 50 50 50 51 51 52 42 34 52 56 53 36 33 29 28 30 30 26 25 25 26 26 26 27 28 30 31 30 30 25 25 24 24 26 23 27 27 27 23 24 19
49 50 50 49 50 50 50 50 50 51 52 51 42 34 51 53 31 35 33 29 31 31 34 32 31 28 28 28 28 29 28 32 34 32 28 30 27 21 17 26 30 27 26 25 22 16 23
49 49 49 49 50 50 50 50 50 50 50 47 36 40 49 50 38 39 34 33 32 31 31 31 32 32 33 30 31 31 32 36 35 33 33 31 28 20 17 26 29 26 26 26 25 27 20
49 49 49 50 50 50 50 50 51 51 49 50 38 39 39 42 38 30 32 30 32 35 34 34 33 33 32 31 32 32 33 36 38 36 35 35 27 22 18 17 19 19 20 20 22 24 25
49 50 49 49 50 50 50 50 51 51 49 50 40 40 40 37 37 33 32 31 30 30 34 33 32 31 31 31 30 31 32 35 36 36 35 33 28 26 25 22 20 20 21 21 20 21 22
49 50 49 49 50 50 50 50 51 51 48 45 36 39 40 40 36 34 34 30 28 31 31 30 30 31 29 32 25 28 28 26 27 34 33 33 30 32 26 23 21 21 21 21 22 24 24
49 50 49 49 50 50 50 50 51 51 50 43 45 46 41 38 36 34 33 32 30 33 36 32 32 30 30 31 35 37 36 34 32 32 33 34 34 29 26 28 29 28 26 22 22 25 25
50 49 49 50 50 51 51 50 51 50 52 48 47 43 45 39 38 35 33 32 32 33 33 34 33 35 39 39 37 36 35 35 35 35 36 38 34 35 31 31 24 26 25 24 24 24 25
50 49 49 51 51 51 52 51 51 51 51 48 45 43 44 41 38 36 34 33 36 36 35 37 40 40 40 38 36 32 30 28 33 32 33 35 36 32 30 25 24 25 26 26 25 26 27
50 49 50 52 52 52 52 51 50 51 52 50 50 50 45 38 42 36 37 37 37 39 40 41 43 43 42 42 37 23 26 23 24 30 34 35 38 35 31 27 22 26 27 30 30 26 33
50 50 51 52 52 52 52 52 51 50 52 52 52 54 42 46 41 39 39 38 38 37 37 41 41 42 43 42 33 34 27 27 22 25 32 33 34 32 30 28 27 27 30 32 26 31 36
49 50 51 52 52 52 52 52 51 50 51 52 52 53 50 45 43 43 42 41 40 37 41 42 40 42 43 37 38 37 36 32 30 25 30 29 32 30 32 28 26 30 30 33 35 38 39
49 50 50 51 51 52 52 52 52 51 51 52 47 52 52 46 46 51 49 49 47 43 38 43 38 41 40 40 41 40 34 37 37 27 26 25 28 29 30 30 29 31 32 37 39 39 39

GFSGBSN_sfc_30mbdewp_024.txt.gz
Dewpoint
51 52 53 54 54 54 55 55 55 53 53 54 55 54 54 53 54 53 52 53 53 54 53 54 54 55 52 40 25 26 26 31 37 37 27 18 14 11 7 6 5 5 -0 2 4 7 9
52 53 54 54 53 54 55 55 55 55 55 55 54 53 53 53 54 53 53 54 54 53 53 54 54 55 48 31 25 24 23 23 22 21 17 16 15 12 4 3 7 9 9 9 9 11 12
53 54 54 54 53 55 55 55 55 55 55 54 54 53 53 53 53 54 54 54 53 54 53 53 54 51 42 29 22 22 22 22 23 24 22 20 18 12 13 16 14 13 14 15 16 16 14
53 54 53 53 53 55 55 55 55 55 54 54 53 53 52 53 53 53 53 53 53 53 53 53 54 49 35 27 25 22 19 18 22 24 25 22 21 23 22 19 13 12 15 14 16 17 20
53 53 53 52 54 55 55 55 55 54 53 53 53 52 52 52 52 52 52 52 52 52 52 53 51 46 31 25 21 20 19 19 22 25 26 23 23 18 18 15 13 13 11 14 18 16 18
53 53 51 53 55 55 55 55 54 53 53 52 52 52 52 52 52 52 51 51 52 51 51 47 43 35 24 18 20 19 20 26 23 26 23 23 21 18 17 16 13 11 5 8 9 16 11
53 52 50 53 54 55 55 55 54 53 52 52 51 51 51 51 51 51 50 45 37 37 36 25 20 23 17 16 18 20 22 24 25 25 23 20 18 17 15 14 11 11 8 8 11 17 16
52 51 49 52 54 54 54 54 54 53 52 51 51 50 50 51 51 51 51 42 39 36 26 24 23 24 23 24 19 20 24 23 21 20 19 13 15 19 16 16 15 14 14 14 17 18 18
52 49 49 52 54 54 53 53 53 52 52 51 50 51 51 50 51 51 45 46 46 47 22 21 24 21 24 25 22 21 25 21 18 17 10 21 20 19 18 18 18 17 17 23 20 20 20
51 47 49 52 53 53 52 53 53 52 51 50 50 51 51 50 48 46 43 46 49 49 20 16 20 19 23 24 22 24 24 25 16 11 12 20 21 20 20 20 23 17 26 25 21 20 15
51 46 49 52 53 52 52 52 52 52 50 50 50 51 50 49 54 40 47 49 50 48 19 20 19 24 21 24 23 24 24 21 18 18 20 21 21 22 22 25 24 22 26 24 24 22 20
50 47 50 52 52 52 52 52 52 51 50 49 50 50 50 49 55 49 50 53 50 39 23 19 20 22 21 23 25 25 23 27 27 18 22 23 24 26 27 26 25 25 27 25 24 23 22
49 47 50 51 52 52 52 52 51 50 51 50 50 49 50 52 49 53 55 48 24 28 20 19 19 22 23 23 23 24 24 24 25 21 22 23 25 28 27 26 27 26 24 25 26 22 22
48 49 51 51 52 52 52 50 50 51 52 52 52 53 54 53 53 57 51 36 28 22 17 18 20 23 22 24 24 25 24 23 26 28 22 21 25 26 27 27 25 26 24 28 22 23 24
48 50 51 51 52 52 51 50 50 51 52 52 52 57 52 58 58 55 43 32 26 19 21 20 20 20 23 25 25 26 26 25 28 30 26 21 24 27 28 28 26 25 27 24 24 29 24
50 50 51 51 50 52 50 50 50 51 51 51 46 45 45 57 58 53 42 34 28 26 20 21 19 21 20 21 23 25 25 28 27 29 28 24 26 23 24 27 31 24 25 24 28 22 17
50 50 50 49 50 50 50 50 50 51 51 52 51 37 54 56 55 39 35 36 28 27 27 21 21 21 23 22 24 25 27 29 30 28 28 25 24 23 22 25 20 24 24 26 22 24 21
50 50 49 48 50 50 50 50 50 50 51 51 45 35 53 55 33 33 33 29 29 29 32 31 28 25 26 26 26 27 27 32 32 30 27 27 25 24 18 23 25 24 24 24 24 22 25
49 49 49 49 50 50 50 50 50 51 51 51 38 44 51 51 34 39 34 30 29 28 27 29 30 30 31 28 30 29 34 35 33 35 35 31 29 24 20 26 28 21 23 24 27 29 25
49 49 49 49 50 50 50 50 51 51 51 50 43 38 37 41 42 33 33 31 32 34 32 31 31 31 30 31 31 31 34 36 37 36 33 36 27 23 21 19 19 17 18 19 20 26 25
49 49 49 49 50 49 50 50 51 51 50 49 43 39 34 33 35 33 30 29 30 31 32 32 30 29 30 29 30 31 33 35 35 35 34 33 29 27 26 20 20 19 20 20 20 21 20
49 50 49 49 50 50 50 50 51 50 48 48 43 38 40 36 33 33 33 30 29 27 31 28 29 30 31 32 29 29 30 29 29 32 33 33 32 33 27 21 20 20 22 23 21 20 21
50 49 49 50 50 50 50 50 51 50 50 46 45 46 40 39 36 35 35 31 29 32 35 32 30 31 35 36 37 35 34 32 31 32 32 34 35 31 26 30 30 29 29 22 22 23 24
50 49 49 51 50 51 51 50 51 50 51 54 50 43 46 39 37 34 33 31 30 33 31 32 32 36 39 36 37 36 35 35 32 34 35 37 35 36 27 31 20 24 23 24 24 24 25
50 49 49 51 51 52 51 50 51 51 52 50 47 48 46 42 40 35 34 31 36 35 35 39 40 39 38 36 38 29 31 26 30 31 32 35 37 32 30 27 25 25 27 28 26 26 28
49 49 50 52 52 52 52 51 50 51 52 51 54 55 49 41 42 36 33 36 36 38 40 41 42 42 40 42 37 17 27 24 27 30 35 35 39 34 31 27 22 25 28 30 29 26 36
49 49 51 52 52 52 52 51 50 50 51 53 53 56 51 48 41 43 38 39 39 41 40 41 42 42 42 42 33 33 28 25 24 26 33 33 35 32 30 27 28 28 30 31 25 32 39
50 50 51 52 52 52 52 52 50 50 50 53 53 54 53 47 44 44 42 41 40 40 43 41 40 42 44 37 37 38 36 34 31 27 32 29 31 30 30 28 25 30 30 32 37 39 40
49 50 51 52 52 51 52 52 51 50 50 52 48 52 54 48 48 50 50 49 47 46 41 44 38 42 44 42 41 41 35 39 36 28 24 26 33 32 32 31 34 35 37 41 41 39 39

GFSGBSN_sfc_30mbdewp_027.txt.gz
Dewpoint
51 51 53 54 55 55 54 55 56 56 55 54 53 55 55 54 54 54 54 52 53 54 54 54 54 55 52 45 35 27 36 39 42 36 35 34 27 14 12 10 6 -0 2 4 5 10 10
52 53 54 55 54 54 54 55 55 55 55 55 55 54 54 53 53 54 53 52 54 54 53 54 54 54 48 32 31 25 23 29 30 35 32 31 20 15 12 14 7 5 2 4 5 10 12
52 53 54 54 54 53 55 55 55 55 55 55 54 54 53 53 53 53 54 54 54 53 53 54 54 52 46 39 29 24 23 22 22 23 24 22 21 21 20 17 14 10 10 9 11 13 13
53 54 54 54 53 54 55 55 55 55 55 54 54 54 53 53 53 53 53 53 53 53 53 53 53 51 36 34 25 23 21 19 21 24 27 26 26 24 23 15 13 12 15 14 16 16 14
53 54 54 53 52 54 55 55 55 55 54 53 53 53 53 52 52 52 52 52 52 53 53 53 50 49 37 26 20 21 19 21 22 24 27 24 22 23 17 15 14 13 12 16 16 18 20
53 53 53 51 53 54 55 55 55 54 53 53 52 52 52 52 52 52 52 52 52 51 52 49 47 41 39 24 21 19 20 24 24 25 25 22 23 20 18 18 16 12 12 17 16 14 10
53 53 52 50 53 55 55 55 54 54 53 52 52 51 51 51 52 52 50 46 39 39 44 35 31 34 20 17 18 19 21 24 26 25 24 23 22 19 15 14 12 12 14 14 17 18 15
53 52 51 50 53 54 54 54 54 53 52 52 51 51 51 51 51 51 50 48 44 44 31 35 28 24 22 23 19 22 25 24 22 23 24 21 19 18 17 16 18 16 19 21 18 19 16
53 51 49 50 53 54 53 53 53 53 52 51 51 51 50 51 52 50 45 48 48 49 30 23 24 20 24 26 24 21 25 26 22 21 22 20 18 17 18 23 21 24 23 22 20 21 21
52 51 47 50 52 53 52 53 53 53 52 51 51 51 51 50 45 49 44 47 51 53 22 20 21 21 24 24 22 25 23 25 19 20 22 21 21 21 20 24 23 25 28 25 23 21 19
52 50 47 50 52 52 52 52 52 52 52 51 51 52 50 51 47 51 48 51 50 50 18 17 22 21 21 24 24 23 22 25 22 19 23 20 22 26 26 25 25 24 26 25 25 23 23
51 49 48 51 52 52 52 52 52 51 51 50 51 51 50 49 50 54 55 56 50 38 21 21 22 22 18 24 25 23 23 26 27 21 24 23 27 27 26 26 26 24 27 28 27 26 22
51 47 49 51 52 52 52 51 51 51 50 50 51 51 49 52 53 56 57 51 27 30 24 18 20 22 23 22 24 25 23 25 27 22 21 23 27 28 27 27 27 27 25 26 24 25 22
50 47 50 51 52 52 51 50 50 51 51 52 51 50 54 58 59 58 55 38 30 24 18 18 22 23 23 23 24 25 25 26 28 32 27 24 24 26 28 27 25 27 26 25 21 23 23
49 48 50 51 51 52 50 50 50 51 52 53 52 55 56 59 59 56 47 37 32 26 21 20 21 23 23 25 26 27 26 26 28 29 27 28 25 28 27 27 28 23 25 24 25 30 24
49 49 50 50 50 50 49 49 50 51 51 52 51 52 53 58 58 53 43 39 30 26 23 22 20 22 21 23 24 26 27 29 27 29 30 25 24 23 26 26 31 25 25 23 26 21 20
49 50 50 49 49 49 49 50 50 51 51 51 52 40 54 59 55 43 38 39 28 27 32 28 23 20 25 22 25 27 28 30 32 28 26 28 28 23 21 23 23 25 25 25 25 25 20
50 50 49 49 50 49 49 49 50 50 51 49 50 37 55 58 30 39 35 35 28 28 32 31 30 24 27 25 28 28 31 32 32 33 27 27 27 21 22 26 26 24 25 27 22 23 26
50 49 49 49 50 49 49 49 49 51 51 52 45 48 55 56 27 33 34 31 29 29 29 29 30 32 31 31 29 34 35 36 37 36 34 29 26 24 23 28 29 21 23 27 30 27 22
49 49 49 49 50 49 49 49 50 51 50 51 49 38 46 48 45 40 37 30 31 35 32 32 31 31 31 31 32 34 35 37 37 33 32 36 27 24 21 22 20 18 19 20 27 25 24
49 49 49 49 49 49 50 50 51 51 49 49 48 40 37 32 29 38 36 33 33 32 33 33 31 31 31 30 31 34 36 36 37 33 35 34 29 30 29 23 22 20 20 21 21 22 21
49 49 49 49 49 50 50 51 50 50 47 47 46 45 37 33 29 34 36 31 32 32 32 31 30 30 33 33 34 33 34 33 33 32 34 35 32 30 21 28 24 19 24 26 24 23 24
49 49 49 49 49 50 50 51 51 51 50 49 49 47 46 43 28 34 34 32 32 33 34 35 34 37 36 35 36 37 36 34 35 33 34 36 33 29 17 29 29 27 26 24 23 24 24
50 49 49 50 50 51 51 50 51 51 52 55 53 52 42 34 40 37 36 33 34 32 34 39 39 37 37 37 33 33 32 33 34 33 40 34 34 32 20 29 8 28 26 26 26 27 28
50 49 49 50 50 52 51 50 50 51 52 53 53 53 44 36 43 37 33 36 39 41 40 40 40 40 39 41 33 20 25 22 30 33 34 37 33 25 21 28 25 25 28 28 26 31 37
49 48 50 51 52 52 51 50 49 50 52 53 54 57 49 40 40 41 36 37 39 40 41 41 43 44 45 40 29 15 24 24 27 30 36 38 36 29 29 19 12 26 29 30 30 26 38
48 49 51 52 52 52 51 50 50 50 51 55 52 56 54 42 45 45 39 38 43 42 41 42 42 41 45 34 30 23 27 31 28 29 32 32 34 31 28 26 26 31 31 31 25 27 39
49 50 52 52 51 52 52 51 50 50 51 55 51 55 52 46 46 49 49 44 43 43 39 42 39 41 42 34 29 33 33 31 30 31 30 24 26 28 29 26 23 33 33 28 34 40 39
50 51 52 52 51 52 52 51 51 51 52 53 48 54 55 50 50 50 49 50 50 49 44 42 36 43 43 38 39 40 33 38 34 25 32 26 29 28 29 27 31 37 36 41 41 39 38

GFSGBSN_sfc_30mbdewp_030.txt.gz
Dewpoint
53 52 52 53 54 55 54 54 55 56 55 55 55 54 54 55 55 55 54 54 52 54 54 54 53 54 52 43 32 32 36 46 48 40 34 31 31 24 17 11 4 2 2 5 11 10 4
52 52 53 53 55 54 54 54 55 55 55 55 55 55 54 54 54 53 53 54 52 53 54 53 54 54 46 29 34 28 33 43 35 32 31 33 28 22 18 14 4 3 4 4 7 11 12
53 53 54 54 54 54 53 54 55 55 55 55 55 54 54 53 53 53 53 54 54 53 53 54 54 52 47 33 38 36 25 22 25 31 25 26 25 22 22 10 9 6 6 6 8 12 10
53 53 54 54 54 53 53 54 54 55 55 55 54 54 53 53 53 53 53 53 53 53 53 53 53 51 31 37 35 25 22 19 22 25 27 25 24 23 18 15 14 12 13 10 12 13 13
52 53 54 54 54 52 54 54 55 55 55 54 53 53 53 53 52 52 52 52 52 52 53 53 49 49 24 38 22 21 20 19 24 24 26 22 24 24 18 14 12 15 10 14 15 16 15
53 54 54 54 52 52 54 55 54 55 54 53 52 52 52 52 52 52 52 52 52 52 52 51 47 40 38 30 21 19 21 22 25 26 26 22 24 20 18 17 11 13 12 16 15 17 18
53 54 54 53 51 53 54 54 54 54 53 52 52 52 51 51 52 51 50 46 39 39 44 25 29 36 29 26 19 18 20 23 25 26 23 26 21 16 16 15 14 15 16 16 17 17 14
54 54 53 52 50 53 54 54 54 53 53 52 52 51 51 51 51 51 49 45 42 45 26 31 36 35 34 19 20 21 24 23 23 23 25 22 19 18 18 23 24 19 19 18 19 21 15
53 53 52 50 50 53 54 53 53 53 53 52 51 51 50 51 52 49 43 45 49 48 38 24 29 27 23 25 23 22 26 26 24 21 22 20 18 18 24 23 23 27 23 22 20 22 21
53 52 51 48 50 53 53 52 52 53 52 52 51 51 50 51 45 47 37 40 49 49 25 21 21 21 23 25 21 25 23 23 23 21 21 20 21 24 25 23 24 26 27 24 22 20 11
52 52 50 47 50 52 52 52 52 52 52 52 51 51 51 50 46 49 49 55 54 47 13 18 21 22 22 24 24 22 23 27 21 19 22 22 26 26 25 24 24 24 25 25 24 22 24
52 51 49 48 50 52 52 52 52 52 51 51 50 52 51 48 49 53 56 57 44 31 17 18 23 20 20 24 23 23 23 27 28 24 24 24 28 26 26 27 26 25 27 30 28 26 22
51 50 48 49 51 52 52 50 50 50 51 51 51 52 49 52 52 57 56 42 23 28 24 19 20 19 22 22 23 23 26 28 28 21 21 25 27 28 28 27 28 27 28 24 23 24 22
51 49 47 50 51 52 50 50 50 50 51 52 51 52 50 56 59 56 49 30 28 29 21 20 23 24 22 24 24 26 26 26 28 32 24 24 24 27 28 26 25 26 28 22 18 19 21
50 48 48 51 51 50 49 49 50 50 51 52 52 52 56 57 58 54 41 27 32 29 21 21 23 23 24 25 25 27 27 26 28 29 25 26 24 28 25 28 28 26 24 26 27 29 23
50 47 49 51 49 50 49 49 50 50 51 52 50 52 50 57 57 47 42 37 34 28 28 23 21 24 22 23 25 27 28 30 27 29 31 27 23 26 25 27 29 23 25 25 25 19 19
49 49 50 50 49 49 49 49 49 50 51 52 51 34 49 59 48 37 33 38 35 30 32 25 24 22 23 23 25 28 29 32 32 30 27 30 26 22 27 22 23 23 25 26 26 25 19
48 49 50 49 49 49 48 49 49 50 51 50 48 32 54 48 23 39 33 36 31 28 31 31 31 31 25 25 30 32 31 31 36 35 25 29 25 22 22 25 26 24 26 26 19 20 25
49 49 49 49 49 48 48 49 49 50 51 48 42 48 55 47 18 31 32 33 31 28 29 29 30 32 32 31 31 35 34 38 34 35 32 31 25 20 23 27 28 22 25 30 28 26 21
49 49 49 49 49 48 48 49 49 50 51 52 45 38 44 49 42 31 33 31 32 35 32 32 31 32 32 32 35 34 34 37 33 30 34 36 28 23 16 22 22 17 19 27 26 23 23
49 49 49 49 48 48 49 49 50 51 50 49 48 37 33 28 33 40 38 32 32 31 33 32 30 31 31 31 34 35 36 36 36 32 34 33 27 29 28 24 23 21 20 20 21 23 22
49 49 49 48 49 49 49 51 50 50 49 48 45 44 39 29 27 31 38 34 32 33 32 31 29 33 33 32 32 34 34 34 31 31 34 36 29 27 20 29 26 19 20 25 26 24 24
49 49 48 48 49 49 50 51 50 49 49 46 49 50 36 42 28 32 35 33 33 34 36 38 36 35 33 35 37 37 36 36 35 32 35 34 31 24 8 29 24 12 25 26 23 26 25
49 49 48 49 49 51 50 50 51 51 51 55 53 50 39 36 32 27 36 35 35 34 36 40 38 35 37 39 32 26 30 33 34 38 37 33 32 29 15 22 6 22 28 26 30 34 33
49 49 49 49 50 51 50 49 49 51 52 53 53 50 39 35 43 38 37 40 40 41 40 41 42 39 40 37 21 17 20 25 32 37 38 34 30 23 14 20 18 24 28 27 25 31 36
49 49 50 50 52 51 49 49 50 50 53 52 54 55 41 36 40 44 39 39 37 38 39 41 43 46 41 34 21 13 8 13 26 31 36 36 31 21 27 12 6 22 29 30 29 25 38
48 49 51 51 52 51 50 50 50 51 53 51 52 56 48 41 45 45 38 38 42 40 39 41 40 41 38 28 24 16 23 28 25 27 29 33 34 29 25 20 22 26 31 30 25 22 39
48 50 51 51 51 51 51 50 51 51 52 50 52 54 48 44 48 48 48 43 43 40 36 41 36 39 37 28 22 30 28 29 29 31 29 24 24 28 28 25 17 30 32 28 30 39 38
49 51 51 51 51 51 50 50 51 52 52 53 49 54 53 47 48 49 49 49 49 46 43 42 32 40 38 34 34 36 31 36 31 24 32 23 23 23 28 24 28 34 33 37 40 39 38

GFSGBSN_sfc_30mbdewp_036.txt.gz
Dewpoint
57 56 55 55 55 54 53 54 55 55 55 55 55 55 55 55 54 55 55 55 54 54 53 54 54 54 51 43 30 42 55 55 43 34 31 29 28 28 24 20 15 13 5 10 7 8 20
57 56 56 55 55 54 53 53 55 55 54 54 54 55 55 55 55 55 54 54 53 53 52 54 54 54 46 26 29 42 45 43 39 34 31 30 28 30 25 17 5 5 7 9 6 6 9
57 56 56 55 54 53 53 54 54 54 53 55 54 55 55 54 54 54 54 53 53 53 53 53 54 53 46 29 34 37 37 36 36 33 29 32 31 26 23 13 7 7 5 8 10 10 13
57 56 56 55 53 53 53 54 54 53 54 55 55 55 54 54 53 53 53 53 53 53 53 53 53 51 32 35 38 35 34 23 32 34 30 28 32 27 16 15 15 10 11 4 9 10 14
56 56 56 54 53 53 53 53 53 53 54 55 55 54 53 53 53 53 52 52 52 52 53 52 50 49 27 31 29 27 25 19 25 28 28 26 26 22 17 11 12 14 11 12 11 14 13
56 55 55 54 54 53 53 53 52 53 54 54 54 53 53 52 52 52 52 52 52 52 51 51 50 40 32 24 31 20 20 22 25 26 23 24 22 18 17 10 8 10 11 13 14 16 16
56 55 54 54 54 53 53 53 52 53 54 53 53 53 52 52 52 52 51 47 40 38 45 29 27 27 33 32 25 19 20 24 26 26 23 24 17 15 15 15 15 15 13 13 16 18 22
56 55 54 54 53 53 54 53 52 54 53 53 53 52 52 51 52 52 49 40 34 39 34 38 36 36 36 33 26 20 25 23 23 21 24 21 17 19 26 23 22 18 16 18 21 21 25
56 55 54 54 54 54 54 52 53 54 53 52 52 52 51 51 51 50 44 41 47 45 39 32 33 26 22 31 24 21 25 26 22 21 21 18 20 24 25 25 23 25 20 21 20 24 25
55 54 54 54 54 54 53 52 53 53 52 52 52 51 51 51 46 43 37 37 52 43 22 21 24 24 24 26 22 24 25 24 23 21 20 24 27 24 22 22 26 22 26 23 21 17 17
55 54 53 53 53 53 52 51 52 53 52 52 52 51 51 49 46 43 41 55 54 37 13 19 22 23 24 22 21 21 28 25 21 22 21 24 25 24 23 24 24 24 26 25 24 22 21
55 54 53 53 53 52 50 50 52 52 51 52 51 51 51 49 47 49 55 49 39 27 17 19 21 19 22 24 23 24 28 30 27 26 27 27 28 26 25 27 26 26 29 29 29 26 22
54 53 53 52 52 51 49 50 52 50 49 51 51 51 50 47 49 57 52 35 23 22 24 20 19 20 23 23 23 26 28 27 22 22 24 27 27 28 28 26 27 29 27 22 23 23 21
54 53 52 52 51 50 49 51 51 49 49 51 51 51 50 50 55 55 41 23 19 25 22 22 21 22 21 24 27 27 27 27 29 25 25 23 20 26 26 26 25 28 26 23 20 22 22
49 53 52 51 50 49 50 51 49 49 48 51 51 50 51 55 51 48 30 19 21 30 24 22 22 21 24 25 26 27 27 26 27 29 22 24 23 28 27 29 27 27 22 26 26 27 21
48 53 51 51 49 49 51 50 49 48 50 52 49 47 51 56 53 44 25 19 32 36 29 24 19 24 22 25 25 26 27 30 27 28 30 28 23 25 25 27 27 24 29 23 23 13 12
50 52 51 50 49 50 50 49 49 49 51 51 47 42 47 54 39 30 21 22 37 39 32 22 23 24 24 24 27 28 28 31 31 31 29 28 22 22 27 22 24 25 24 26 26 24 15
52 52 50 49 50 49 49 48 48 49 51 51 40 32 53 39 26 33 27 33 37 28 31 31 29 25 25 28 30 29 29 30 37 34 25 29 23 21 22 26 29 25 25 22 7 13 23
52 50 49 50 49 48 48 48 48 49 51 49 43 50 52 35 22 28 31 32 33 28 30 30 31 31 33 32 29 32 33 36 33 32 28 28 24 20 19 22 26 23 28 27 24 25 20
50 49 50 49 48 48 48 48 49 50 51 48 45 40 45 41 33 26 27 28 31 34 33 32 32 33 33 34 35 33 34 35 32 32 36 30 26 21 15 16 23 18 25 27 24 20 20
49 49 49 49 48 48 48 48 49 50 51 50 43 39 41 35 35 27 23 30 31 29 32 32 30 31 31 32 33 33 36 33 31 34 34 28 23 27 25 26 23 19 19 25 23 22 17
49 49 49 48 48 48 48 48 49 49 51 47 44 36 34 34 38 32 31 33 30 32 32 30 29 34 33 31 30 32 33 30 21 34 33 33 26 25 24 28 27 22 21 21 24 23 24
49 49 48 47 47 48 48 48 49 50 49 45 48 45 34 34 38 32 32 32 33 34 38 36 33 32 32 34 37 37 36 35 32 31 32 28 27 24 16 25 18 12 17 19 22 25 22
49 48 47 47 48 48 50 50 50 50 49 49 50 46 36 28 31 35 35 35 34 34 33 38 36 32 35 35 32 30 33 37 37 37 34 28 24 18 7 14 -3 7 26 25 23 25 27
47 47 48 48 49 49 49 50 50 50 51 52 52 45 38 29 29 30 37 38 40 40 40 40 41 39 35 26 27 27 24 28 31 36 32 31 24 18 9 11 10 9 23 26 25 22 31
47 48 48 49 48 47 48 49 49 49 49 53 53 46 42 32 32 38 39 39 36 37 38 41 43 39 33 23 19 24 23 21 21 31 35 28 24 19 20 6 -2 8 27 30 28 22 30
48 49 50 49 48 48 50 50 50 49 49 52 53 50 44 42 46 42 37 37 39 37 37 40 39 38 33 24 20 18 17 21 16 18 29 32 30 24 19 14 15 19 29 30 21 15 33
49 50 51 49 48 49 49 50 52 51 51 52 52 53 45 45 47 48 47 40 40 38 34 39 36 37 31 28 23 21 20 26 25 27 29 25 25 25 24 22 13 26 30 26 27 30 33
50 50 49 48 48 49 49 50 52 52 51 50 50 53 51 47 47 48 47 48 48 40 41 39 35 37 34 29 25 29 24 31 27 17 31 23 25 20 25 20 26 28 31 33 34 33 36

GFSGBSN_sfc_30mbdewp_039.txt.gz
Dewpoint
57 57 56 56 56 55 55 54 54 54 55 55 54 54 55 55 54 53 54 54 54 54 54 53 54 54 51 41 31 44 56 56 45 33 31 29 27 27 27 25 17 16 9 9 13 17 29
58 57 57 56 56 56 55 54 54 54 55 54 54 54 54 55 55 55 55 54 53 53 53 53 54 54 46 26 29 47 45 42 37 33 31 31 27 29 26 19 13 11 9 7 9 17 20
58 57 57 56 56 56 55 54 53 54 54 54 54 54 55 55 55 54 54 53 53 53 53 53 54 53 46 30 33 43 40 38 38 35 30 31 30 27 26 15 7 8 9 10 11 14 16
58 58 57 56 55 55 54 53 53 54 54 53 54 55 54 54 53 53 53 53 53 53 53 53 54 52 34 36 39 36 36 30 36 36 30 31 32 28 23 17 17 10 11 6 11 11 15
58 58 57 56 55 54 54 53 53 53 53 53 54 54 54 53 53 53 52 52 52 52 53 53 50 49 28 35 29 28 29 20 26 33 32 29 30 24 16 13 12 14 5 9 11 15 14
58 57 57 56 55 54 53 53 53 53 53 53 54 54 53 53 52 52 51 51 51 52 51 51 49 42 32 26 31 25 20 23 26 26 26 25 23 18 16 10 7 11 12 13 11 16 22
54 58 57 56 55 54 54 53 53 53 52 53 54 53 53 52 52 52 50 48 42 39 46 32 28 31 30 32 31 19 20 24 26 26 23 24 17 13 13 13 12 13 13 14 17 20 29
51 58 57 56 55 54 54 53 53 53 52 53 53 53 53 52 52 52 49 41 34 36 36 39 37 36 36 35 26 21 25 21 23 21 24 20 16 19 26 21 19 18 17 19 22 24 29
50 54 56 56 55 54 54 54 53 52 52 53 53 52 52 52 52 50 46 42 46 44 40 32 36 30 24 32 25 20 25 25 22 21 20 19 20 24 26 25 22 24 21 20 20 25 28
49 49 52 55 55 54 54 54 53 52 52 53 52 52 51 51 45 45 39 40 43 44 25 21 25 25 26 26 21 24 25 24 23 21 23 25 27 23 23 25 25 22 25 23 20 19 17
48 48 49 55 54 54 53 53 52 52 52 53 52 52 51 49 44 41 41 54 50 36 8 20 22 24 25 22 22 22 31 24 21 22 22 24 25 24 23 24 23 26 27 25 23 22 22
48 47 48 49 54 53 53 52 51 51 52 52 52 52 51 50 48 48 52 47 39 28 16 19 22 20 23 23 23 25 29 29 27 28 28 27 28 27 26 28 26 31 29 29 29 27 20
47 47 47 48 54 53 53 52 50 50 51 50 51 52 50 48 44 56 52 38 24 20 25 20 19 21 23 23 23 27 27 27 23 22 23 26 27 28 28 27 28 29 26 20 17 21 19
46 47 48 49 53 53 52 51 49 50 50 49 51 51 50 49 53 52 39 26 21 23 24 22 20 23 22 24 27 28 27 27 29 26 26 21 17 25 27 26 26 28 27 23 16 21 24
46 47 48 52 53 52 51 50 50 50 49 49 51 50 48 49 49 48 32 21 22 24 27 22 22 22 23 26 26 27 27 26 28 28 21 23 23 27 27 29 28 27 22 26 25 26 22
46 47 49 48 53 52 50 49 50 50 49 50 49 47 46 56 53 40 27 21 21 34 29 23 17 23 22 25 24 26 26 30 27 28 30 27 23 25 25 27 28 27 29 24 24 12 10
46 46 48 48 52 51 50 50 50 49 48 51 49 43 48 56 42 34 24 22 32 39 33 23 23 24 24 25 27 27 27 31 31 29 30 27 24 23 26 22 25 26 26 26 26 24 10
45 46 47 47 51 51 49 49 49 48 49 51 45 38 53 42 31 32 25 27 38 32 32 31 26 25 25 28 29 28 27 29 36 33 27 28 24 22 23 26 29 26 25 24 11 12 24
45 46 47 46 51 50 49 49 48 48 51 49 38 47 52 35 26 26 30 32 33 29 30 30 30 29 33 31 28 32 33 35 34 30 28 27 24 20 20 22 26 24 28 25 23 25 19
46 48 47 49 50 49 49 48 48 48 51 48 45 39 45 37 33 26 27 29 29 34 32 32 33 34 34 33 35 33 33 34 32 32 34 28 25 21 19 17 24 20 28 25 23 18 18
47 47 49 50 49 49 49 48 48 48 51 48 42 40 42 34 28 26 24 29 26 30 32 32 32 31 32 31 33 33 35 31 31 36 34 28 22 24 24 26 24 20 21 27 24 22 16
48 47 50 49 49 48 48 48 48 49 51 48 39 37 36 35 33 27 30 30 28 32 32 29 30 33 32 30 29 32 33 29 23 34 33 32 25 25 24 28 26 22 22 21 26 25 23
48 49 49 49 48 48 48 47 48 49 50 47 49 41 32 35 35 26 28 33 31 35 37 36 33 32 32 34 37 37 36 35 31 31 31 28 27 24 17 23 18 16 19 22 22 24 24
50 49 48 48 48 48 47 47 48 50 49 47 48 41 30 30 34 27 30 35 33 33 33 38 35 32 36 38 34 33 35 36 35 34 32 25 22 18 10 12 -1 8 25 23 21 22 25
49 48 48 48 47 47 47 47 48 50 50 52 51 42 33 28 32 33 35 37 39 40 39 39 41 38 36 28 31 30 28 30 32 34 30 28 22 17 10 10 10 6 17 21 24 17 27
48 47 47 47 47 47 48 48 49 50 51 53 51 46 39 29 29 35 38 38 36 37 38 40 41 36 31 24 25 26 25 25 23 30 34 27 24 21 19 7 3 5 23 31 28 21 27
47 47 48 47 47 47 48 48 49 50 51 53 53 48 45 38 45 41 37 37 38 37 37 37 35 35 32 24 22 23 22 22 17 16 26 30 29 25 19 16 16 18 24 30 16 11 28
47 47 47 47 47 47 47 48 49 50 50 52 52 52 46 45 47 47 45 39 39 38 34 39 35 35 30 28 26 24 21 23 23 25 28 23 24 24 23 21 12 25 30 24 25 29 31
48 47 46 46 47 48 49 49 49 49 49 53 50 53 50 46 46 47 47 47 47 39 40 39 35 36 34 30 26 26 25 29 26 19 31 22 26 21 24 19 25 26 31 33 34 32 33

GFSGBSN_sfc_30mbdewp_042.txt.gz
Dewpoint
59 58 58 57 57 56 56 56 55 55 54 54 54 54 54 55 55 54 53 54 54 54 54 54 53 54 50 40 31 46 53 54 40 32 28 29 24 19 15 13 18 17 14 15 29 32 30
59 59 58 57 57 56 56 56 55 54 54 54 54 53 54 54 55 55 55 54 54 53 53 53 54 54 46 30 26 43 44 41 35 30 29 29 24 21 25 23 18 18 10 14 22 29 28
56 59 58 57 57 56 56 56 55 54 53 53 53 53 54 54 55 55 54 54 53 53 53 53 54 51 43 32 32 41 39 34 35 32 29 29 27 27 28 21 10 11 9 11 15 24 24
54 56 58 57 57 56 55 55 55 54 53 53 53 53 54 54 54 53 53 53 53 52 53 53 53 50 34 33 34 34 33 33 36 34 32 31 31 27 27 18 13 9 9 11 16 22 18
54 54 58 58 57 56 55 55 54 53 53 53 53 53 54 54 53 52 53 52 52 52 52 53 50 48 31 32 29 28 30 23 32 34 33 32 31 27 22 12 8 9 5 6 11 15 19
52 53 54 58 57 56 55 54 54 53 53 52 52 53 54 53 53 52 52 51 51 52 50 50 47 45 36 25 28 30 22 24 28 30 28 28 26 17 16 10 5 10 3 7 6 15 13
52 50 52 57 57 56 55 54 53 53 52 52 52 53 53 53 52 52 50 47 43 40 44 33 29 34 28 30 30 21 21 27 28 26 20 26 20 12 11 11 12 12 13 8 13 21 19
51 51 51 55 57 57 56 55 54 53 52 52 52 53 53 53 52 52 49 38 35 44 35 36 35 35 32 32 26 21 25 20 21 17 26 21 17 23 23 19 16 14 14 17 21 21 24
50 51 51 53 57 57 56 55 54 53 52 52 52 53 52 52 52 50 45 38 47 45 41 32 35 29 25 31 23 19 24 25 17 18 22 18 23 26 23 21 19 21 19 20 18 24 27
49 50 50 50 54 57 55 55 54 53 52 52 52 52 52 52 47 45 40 38 39 43 30 20 24 24 26 29 22 24 26 24 24 20 24 24 26 24 23 23 23 19 24 22 21 19 14
49 50 50 48 48 54 55 54 54 53 52 52 52 52 52 51 47 38 42 43 49 46 12 18 23 26 26 24 21 24 31 25 18 22 24 24 24 23 21 23 25 24 25 23 22 20 20
48 49 49 48 48 47 54 54 53 52 52 52 52 52 52 50 48 48 52 55 50 33 17 20 22 21 22 23 23 25 28 28 29 26 26 26 28 27 26 28 27 30 28 27 26 24 17
47 48 49 48 48 47 51 54 53 52 51 51 50 52 51 49 39 57 54 48 31 22 24 20 20 20 19 21 23 24 24 24 19 21 23 25 26 28 29 27 30 28 22 13 16 17 14
46 47 48 48 47 47 51 53 52 51 51 50 49 52 51 49 49 54 50 39 22 18 20 23 20 19 17 22 24 26 26 23 27 25 22 18 20 24 28 27 23 25 22 14 8 13 16
45 45 47 48 48 48 50 53 52 50 50 49 50 51 49 49 51 52 42 32 21 24 24 21 21 18 21 24 22 24 26 24 27 28 17 20 21 27 28 30 28 27 22 28 26 28 23
44 45 46 47 48 47 51 53 51 50 49 49 47 47 43 48 52 46 40 29 24 32 28 23 16 18 19 22 20 21 25 29 27 29 32 27 22 26 26 28 29 28 28 23 23 16 8
44 44 45 46 48 47 52 52 51 50 49 50 45 39 50 56 52 43 35 27 26 36 32 22 17 22 21 25 21 19 24 30 30 30 31 28 24 26 26 23 22 27 25 25 23 24 10
43 44 45 46 48 48 51 52 50 49 49 50 43 34 57 53 41 43 33 28 33 32 38 28 24 22 22 26 25 22 23 26 35 31 28 30 28 26 24 26 28 26 25 23 14 15 25
43 44 44 46 48 48 49 51 50 49 49 47 40 45 53 48 39 37 31 29 34 29 30 31 27 28 31 28 27 30 31 36 35 31 30 29 27 24 23 24 28 24 26 24 24 25 19
43 44 45 46 47 48 48 51 49 49 50 47 39 39 49 45 38 33 29 26 29 36 33 33 33 35 33 32 35 33 33 35 35 34 31 29 28 24 19 19 24 23 25 24 20 19 13
43 43 45 46 47 47 48 50 49 49 50 51 41 34 39 40 38 31 29 27 24 31 34 34 33 31 30 32 32 33 34 32 35 36 35 32 25 25 25 24 23 22 22 25 21 19 19
43 44 45 46 47 48 48 50 49 49 50 49 40 39 41 39 35 30 28 28 24 32 32 31 31 33 33 31 29 32 33 31 30 35 34 33 28 28 26 27 25 23 22 21 24 22 21
43 44 45 47 48 47 48 49 48 48 50 48 49 43 37 38 33 27 27 28 26 34 38 36 34 34 34 36 38 38 37 33 31 34 34 32 31 27 21 23 22 20 23 21 20 22 23
44 44 46 48 48 48 49 48 48 48 50 49 49 40 37 33 32 26 28 32 32 33 34 37 37 35 39 39 37 36 36 34 32 32 33 31 29 28 22 16 7 12 21 21 21 21 21
44 45 48 49 49 49 48 48 48 48 50 53 53 43 38 35 33 29 30 37 39 40 40 39 41 40 39 36 34 32 32 32 34 32 30 29 27 22 22 15 13 8 16 16 19 14 23
46 48 49 49 48 48 48 48 48 48 49 50 55 51 43 33 35 29 35 39 38 39 40 40 39 38 35 35 34 31 30 29 29 32 33 29 30 29 23 19 15 16 25 31 29 18 27
48 48 48 48 47 47 47 48 48 48 50 52 55 52 45 41 39 41 32 37 41 40 40 38 37 37 36 35 31 33 30 26 24 22 28 33 33 31 29 27 23 21 22 31 19 16 29
47 47 47 47 47 47 47 48 48 48 50 52 54 54 49 48 46 48 44 41 41 40 39 39 36 38 37 33 35 33 32 27 25 25 28 26 29 28 28 26 18 24 30 25 29 32 31
47 47 47 47 47 47 48 48 48 49 50 52 52 53 52 48 47 49 48 49 47 43 41 39 40 38 38 38 36 35 31 31 32 27 30 26 29 28 26 24 29 28 31 34 35 34 34

GFSGBSN_sfc_30mbdewp_045.txt.gz
Dewpoint
55 58 59 59 58 57 56 56 56 55 55 54 54 54 54 54 54 55 55 55 55 54 54 54 53 54 51 37 27 45 49 57 42 31 28 24 20 15 11 11 12 13 18 16 28 29 29
54 55 58 59 58 57 57 56 56 55 55 54 54 53 53 53 54 55 55 55 54 54 53 53 53 54 49 28 24 31 39 38 30 28 27 23 21 18 20 19 13 16 22 26 31 31 30
52 54 54 59 58 58 57 56 56 55 55 54 53 53 53 53 54 54 54 54 54 53 53 53 54 50 41 28 28 34 37 32 32 31 27 26 24 24 24 23 17 16 25 26 26 29 29
52 53 54 54 58 57 57 56 56 55 55 54 53 53 53 53 54 53 53 53 53 53 53 53 53 48 36 30 30 30 31 31 31 32 30 30 29 27 27 20 13 16 12 19 21 26 27
52 53 54 53 57 57 57 56 55 55 54 54 53 53 52 53 53 53 52 52 52 52 52 53 51 45 32 33 27 26 27 26 29 31 32 30 30 28 27 15 13 11 10 14 17 21 19
52 52 54 53 53 58 57 56 55 54 54 53 53 52 52 54 53 53 52 51 51 51 50 47 43 41 38 25 26 28 24 23 29 31 30 30 28 25 21 15 9 8 10 11 13 17 15
49 51 52 51 51 55 57 56 55 54 53 53 52 52 53 53 53 52 50 46 42 43 42 31 29 26 28 29 27 24 21 22 27 26 22 26 23 17 18 15 14 12 5 6 6 9 8
48 50 51 52 51 53 57 57 56 54 53 52 52 52 53 53 53 52 50 38 35 44 38 32 27 29 29 29 25 22 22 19 22 25 26 22 22 21 15 12 11 9 13 8 12 11 18
47 49 50 51 51 52 57 57 56 54 53 52 52 52 53 52 52 50 44 38 44 44 41 29 27 26 27 26 23 18 21 19 20 20 21 26 23 23 17 13 12 13 12 22 15 17 16
47 49 50 51 51 50 56 57 56 54 53 52 51 52 52 52 48 43 42 40 41 43 36 23 24 23 23 26 21 20 21 20 19 17 17 27 29 21 15 15 16 16 22 18 17 18 13
47 48 49 50 50 50 49 56 56 55 53 52 51 52 52 51 50 40 45 41 45 50 23 17 18 23 21 21 19 18 22 20 18 16 18 21 20 17 15 21 21 24 23 20 17 13 16
47 48 48 50 50 49 47 54 55 54 53 52 52 52 52 50 49 47 48 54 49 38 24 16 20 21 21 21 18 19 19 20 24 19 21 32 27 24 25 24 23 26 23 22 19 16 16
46 47 48 49 50 49 48 50 54 54 53 52 52 52 51 47 41 48 49 52 36 27 20 15 18 20 19 18 18 17 18 17 16 14 17 22 22 26 26 23 26 23 21 18 17 13 13
45 46 48 48 50 49 48 48 54 53 52 52 50 51 51 47 48 55 51 45 29 20 20 17 16 18 17 16 17 16 16 13 15 18 14 17 20 22 24 24 22 21 19 15 9 8 10
44 45 47 47 48 49 48 48 52 53 52 51 49 50 49 50 50 53 44 38 30 21 18 17 17 16 15 16 16 17 18 15 16 18 17 20 18 25 26 26 23 22 17 24 20 29 19
45 44 46 47 47 48 48 48 52 53 51 49 45 47 45 49 52 50 42 36 29 23 20 19 16 15 14 17 17 15 16 18 20 26 27 21 18 23 25 27 27 25 26 19 18 15 8
44 44 46 46 47 48 48 48 51 52 50 49 43 43 41 50 50 45 37 34 30 26 29 20 17 16 15 16 16 15 16 26 26 28 30 20 19 24 25 21 16 25 22 20 20 20 14
41 43 44 45 45 47 48 48 50 51 50 49 44 38 50 53 34 39 37 34 31 25 34 27 24 18 18 18 19 17 14 20 29 28 23 24 21 19 22 24 26 24 20 21 18 14 18
38 44 44 44 46 47 48 48 50 51 49 45 43 45 55 48 30 39 36 34 30 25 29 29 22 20 21 21 21 20 19 36 32 31 25 29 19 16 21 24 26 23 22 21 20 22 17
39 42 43 44 45 46 48 48 49 50 49 46 42 41 49 50 33 37 35 32 28 29 30 28 23 22 23 20 23 24 25 34 35 31 31 31 19 19 18 17 22 24 23 22 21 20 15
40 42 43 44 45 46 47 48 50 50 49 47 45 36 41 39 35 36 34 30 27 24 32 32 27 26 25 23 24 26 29 34 35 35 31 31 25 22 21 24 23 21 20 20 21 21 17
40 40 44 44 45 46 47 47 50 50 49 46 44 34 37 33 32 36 34 30 24 22 29 30 26 23 25 26 28 26 30 31 30 35 33 32 26 28 27 25 25 22 22 20 18 19 14
41 42 43 44 45 46 47 48 49 50 48 45 46 47 36 36 35 34 33 30 24 24 37 35 28 23 27 32 37 37 34 32 32 34 33 33 30 28 23 24 22 21 22 19 17 18 18
41 42 43 44 45 46 46 47 47 49 48 44 45 43 38 37 37 34 31 29 26 28 32 35 33 30 40 40 38 36 34 33 33 34 35 34 32 32 24 20 12 13 17 16 19 18 16
41 43 43 44 45 45 47 46 47 48 49 47 53 50 40 40 37 32 29 28 28 36 35 38 40 40 40 37 35 33 33 33 32 29 28 30 30 26 26 16 15 15 12 16 16 15 15
42 43 44 44 45 46 47 47 48 49 49 49 54 55 49 40 37 29 26 26 33 36 40 40 41 40 39 39 38 30 26 25 28 32 30 28 30 25 26 24 21 21 23 26 24 15 19
43 43 44 44 45 47 47 48 48 48 49 49 51 56 51 34 34 32 28 31 30 34 36 40 40 39 39 41 36 34 29 29 27 30 33 34 34 30 30 30 27 23 23 28 18 23 25
43 44 44 43 46 48 48 48 48 48 48 49 50 56 54 42 43 44 35 31 35 34 39 39 38 40 37 37 39 36 37 31 28 25 30 29 33 31 34 32 22 22 26 22 32 27 30
44 42 45 48 48 48 48 48 48 48 48 51 49 55 54 46 47 50 50 49 47 43 37 40 35 38 38 36 41 42 36 34 35 28 28 27 29 29 28 26 28 25 25 30 31 31 31

GFSGBSN_sfc_30mbdewp_048.txt.gz
Dewpoint
53 54 54 55 59 58 58 57 56 56 55 55 55 54 54 54 54 54 55 55 55 55 54 54 54 54 48 42 35 38 51 52 41 30 29 24 20 15 12 10 13 16 18 20 19 37 31
52 53 54 54 57 59 58 57 57 56 55 55 54 54 53 53 53 54 55 55 54 54 54 53 53 54 47 35 26 31 36 43 33 25 26 23 20 19 16 19 13 16 21 26 30 29 28
50 53 54 54 54 58 58 58 57 56 56 55 54 54 53 53 53 54 54 54 53 53 53 53 53 50 41 34 30 30 36 33 30 30 27 26 22 21 21 22 19 23 25 26 28 30 30
49 52 53 54 53 54 58 58 57 56 56 55 54 53 53 52 53 53 53 53 53 53 53 53 53 48 38 34 30 27 29 32 32 29 30 29 29 25 25 28 14 18 22 22 22 28 30
48 50 53 53 53 53 56 57 57 56 56 55 54 53 52 52 53 53 53 52 52 52 53 52 50 47 35 33 28 26 27 25 26 29 31 30 29 28 27 25 19 20 15 17 19 21 25
47 48 52 52 54 52 55 57 57 56 56 55 54 53 52 52 53 53 52 52 51 51 51 46 44 38 39 26 23 22 25 24 26 30 30 29 29 27 25 20 15 15 12 14 14 17 20
48 47 50 52 53 52 52 56 57 56 55 55 53 52 52 52 53 53 51 48 45 46 43 32 31 28 26 28 28 25 25 21 24 29 26 28 25 20 21 18 15 17 14 16 14 15 13
46 47 49 51 51 52 52 54 57 56 55 54 53 52 52 53 53 52 50 42 37 43 41 39 31 28 27 29 25 21 22 19 23 23 25 24 26 25 21 20 16 12 16 15 9 9 7
47 47 48 48 51 52 51 52 56 56 55 54 53 52 52 52 52 50 45 39 39 42 40 37 35 20 23 26 25 20 20 19 20 24 22 24 31 35 26 22 13 12 21 22 21 18 10
47 47 47 47 50 50 52 51 54 56 55 54 52 52 52 52 48 45 42 42 41 43 37 29 26 21 25 25 23 21 19 18 18 21 30 32 31 31 26 15 14 21 28 22 24 26 12
47 47 47 47 50 50 51 50 48 56 55 54 52 52 52 51 50 44 45 42 43 48 31 23 23 21 23 21 19 19 19 18 19 21 25 32 30 28 22 18 22 26 25 26 17 14 19
46 47 47 47 49 49 51 50 48 53 55 54 52 52 52 50 49 49 49 51 43 40 27 16 15 19 20 19 18 16 17 20 19 20 22 28 33 31 26 22 20 28 26 20 19 22 17
44 46 47 47 48 49 50 50 48 51 55 54 52 52 51 46 43 46 48 51 39 29 21 18 15 19 19 20 18 14 17 16 16 18 16 25 19 23 25 19 21 20 17 18 27 27 15
43 45 46 47 48 49 50 49 48 51 54 53 51 52 51 48 48 50 53 46 30 23 26 14 15 19 18 18 16 16 13 13 13 16 13 23 21 22 22 19 30 29 22 26 20 22 20
41 43 45 46 47 49 50 49 48 50 53 53 51 50 48 50 51 52 48 39 30 27 23 20 14 16 17 16 15 15 13 13 14 14 14 19 24 32 26 19 28 26 20 24 17 28 21
40 41 43 46 46 48 49 49 48 51 53 51 48 45 43 50 53 50 45 38 32 29 23 18 14 15 15 15 14 15 14 16 13 12 24 29 29 35 28 24 23 20 21 20 17 14 12
40 41 44 45 45 47 49 49 48 51 51 51 46 39 41 51 52 45 38 37 35 31 27 23 16 15 14 14 15 15 13 15 15 24 25 28 30 27 24 21 13 24 22 16 14 19 18
40 41 43 43 45 46 48 49 48 51 51 50 44 36 47 54 42 35 36 35 33 34 28 26 24 18 16 15 16 14 13 16 23 24 23 21 21 20 21 22 22 22 20 20 22 18 21
39 39 40 42 45 45 46 47 48 50 51 48 40 42 52 49 33 33 33 35 32 32 30 27 28 22 20 17 16 16 16 33 28 25 25 25 23 19 18 21 24 23 18 18 19 24 22
39 38 39 40 43 45 45 47 48 50 51 50 39 39 49 49 39 30 31 33 32 33 28 25 26 23 20 20 21 21 20 33 33 31 31 33 25 19 18 16 21 22 23 19 20 24 23
38 38 38 38 40 43 44 47 48 49 50 50 44 37 44 41 42 34 34 32 30 29 30 29 25 24 20 21 20 20 22 35 34 35 31 29 21 17 16 18 19 22 22 19 18 20 21
37 39 39 40 40 42 44 46 48 49 50 48 41 39 42 38 39 36 32 35 30 30 26 28 27 23 21 22 21 21 25 33 30 35 30 31 26 28 26 26 23 23 21 19 19 18 16
37 39 41 40 43 42 44 46 47 47 50 45 43 46 44 39 38 34 34 36 33 29 27 26 28 27 26 27 31 36 31 33 30 34 32 31 32 31 28 26 23 20 21 21 19 18 18
36 41 40 43 40 43 46 47 47 48 49 46 42 45 45 37 36 33 33 35 33 29 28 29 32 28 36 39 37 35 34 34 34 34 34 33 34 34 28 22 17 19 17 14 16 15 13
38 38 41 41 44 45 46 47 48 48 50 49 44 48 48 40 35 32 32 35 34 30 33 38 39 40 40 39 37 35 35 30 31 30 32 33 35 32 27 22 20 19 15 16 17 17 20
39 40 41 41 44 45 45 46 47 48 48 49 49 51 52 44 36 30 33 34 34 33 40 43 42 43 40 40 37 31 29 27 26 29 28 28 34 29 27 25 20 24 22 22 21 15 21
40 41 42 43 44 45 45 46 46 46 46 44 46 49 50 47 40 33 33 34 35 41 43 41 41 40 42 43 36 30 28 26 26 31 33 34 34 31 31 29 31 25 24 26 18 28 28
41 42 42 43 44 45 46 46 45 46 45 45 44 48 49 49 42 39 35 33 34 41 41 44 40 39 41 35 35 38 36 32 27 29 34 34 35 33 35 34 27 23 24 24 33 29 30
41 42 43 44 44 45 46 46 46 47 47 47 45 50 51 49 48 50 49 49 48 48 43 43 38 40 42 38 40 43 38 37 36 29 27 27 32 33 34 32 29 24 27 30 31 32 34

GFSGBSN_sfc_30mbdewp_051.txt.gz
Dewpoint
51 53 54 55 54 57 59 58 57 56 56 55 55 54 54 54 53 53 54 54 54 54 54 54 54 54 49 43 42 40 51 50 41 33 28 28 27 23 16 13 15 13 14 22 39 43 43
50 51 53 54 54 54 58 59 58 57 56 55 55 54 54 53 53 53 53 54 54 54 54 54 54 54 50 34 36 42 47 41 36 28 28 29 25 22 19 18 21 26 26 27 34 36 38
48 49 51 53 54 54 54 59 58 57 56 56 55 54 54 53 53 52 53 54 53 53 53 53 54 51 45 32 35 32 33 36 36 25 24 26 27 23 24 26 27 26 24 26 28 38 37
49 49 50 52 53 54 53 54 58 58 57 56 55 54 53 53 52 52 53 53 53 53 53 53 53 50 39 41 38 37 34 28 34 32 29 31 31 30 27 28 26 22 23 22 27 37 38
49 49 49 50 53 54 53 53 56 58 57 56 55 54 53 52 51 52 53 52 52 52 53 52 50 47 42 41 38 35 29 27 29 30 31 30 29 29 28 26 23 20 18 18 20 35 36
48 49 48 49 52 53 54 53 55 57 57 56 56 54 53 52 51 52 52 52 51 51 51 48 47 40 41 29 31 28 27 28 25 30 30 29 28 28 27 23 17 18 18 18 16 22 32
49 48 49 49 50 53 53 52 53 56 57 57 55 54 53 52 51 53 51 47 46 46 43 40 37 32 28 30 29 26 25 24 23 30 28 29 28 24 23 21 20 18 19 17 16 19 21
49 48 48 48 49 52 53 52 52 54 55 56 56 54 53 52 52 52 51 43 42 41 41 43 41 39 34 31 27 28 25 23 21 24 27 25 29 29 30 30 25 20 18 19 22 18 17
47 49 48 48 48 50 52 52 52 54 55 56 55 54 52 52 52 50 47 43 42 42 42 40 39 40 35 25 26 26 25 21 20 24 26 26 29 30 29 30 30 27 24 22 21 25 19
44 47 49 48 48 48 49 52 52 50 55 55 55 54 52 52 47 48 47 47 47 44 39 34 33 36 33 21 25 27 26 19 20 25 29 28 31 27 28 29 30 27 24 27 20 18 15
44 45 47 48 48 47 48 50 52 51 54 55 55 53 52 51 49 48 49 51 46 45 24 32 31 26 20 24 24 23 25 21 17 26 28 24 28 27 28 28 28 25 27 22 25 24 23
45 44 45 47 47 47 48 50 51 50 49 55 54 53 52 51 50 48 48 48 50 42 29 26 24 19 22 24 23 21 19 19 20 25 26 25 31 30 30 28 26 23 22 27 31 29 21
42 44 45 47 47 47 47 50 51 49 48 53 54 52 51 47 45 51 48 48 40 35 27 21 18 18 20 20 20 19 17 17 17 17 20 27 23 28 32 28 29 26 26 23 19 20 21
39 41 44 45 47 48 47 49 50 49 47 52 54 52 51 48 49 51 52 46 35 29 29 22 19 19 19 20 20 19 15 17 18 19 20 23 19 29 30 27 25 28 28 20 19 21 22
40 40 41 43 46 47 48 48 49 49 48 52 53 51 49 48 49 50 49 38 31 31 25 24 17 19 19 19 20 19 16 13 17 16 13 23 28 35 30 31 27 28 26 31 23 30 25
42 39 40 42 44 46 47 48 49 49 49 53 50 49 47 49 51 49 45 35 36 33 32 30 22 17 17 19 19 19 17 17 16 16 19 30 26 35 34 33 27 25 25 24 22 12 12
39 39 38 40 44 45 47 47 49 49 50 52 49 44 45 48 51 47 37 36 37 36 34 30 24 18 17 18 18 16 18 17 17 24 28 30 24 30 31 30 25 24 21 22 20 24 17
38 39 39 39 40 43 46 47 49 49 51 51 47 40 47 52 42 41 38 36 38 36 35 35 28 26 23 17 18 16 17 18 22 26 24 28 29 30 27 32 31 23 23 25 18 17 23
36 36 37 37 41 42 44 47 48 49 50 49 44 41 50 47 30 36 35 34 35 35 35 33 28 28 28 23 20 19 18 34 28 26 25 31 24 19 24 25 26 23 22 20 21 28 21
37 37 37 37 41 42 42 47 47 49 50 50 42 38 46 47 34 30 34 30 31 35 36 34 32 29 28 24 24 23 31 34 34 33 31 31 27 23 18 18 21 21 23 23 21 21 21
38 37 38 37 42 43 42 46 45 49 49 50 44 37 44 40 40 36 32 30 31 34 36 35 32 29 27 24 22 21 33 34 34 34 31 29 24 23 20 22 25 22 23 23 22 22 21
38 38 38 40 41 42 43 45 45 48 49 46 41 39 44 42 41 41 36 30 30 32 34 32 32 29 28 24 24 22 30 33 31 34 31 32 26 25 25 28 25 23 23 23 22 20 19
38 39 39 39 41 39 40 41 45 46 48 42 44 45 42 40 41 40 37 32 30 33 33 33 30 30 30 26 30 32 34 34 33 31 30 32 30 30 27 25 23 22 22 22 22 22 20
38 39 39 38 39 38 39 41 45 46 46 44 43 44 42 38 41 39 34 35 33 33 33 33 30 30 34 40 38 38 37 35 36 36 34 34 32 32 27 23 20 23 20 14 16 19 20
37 39 39 40 39 40 40 42 45 45 48 42 46 46 44 39 40 39 34 34 32 34 37 35 37 44 40 39 37 33 32 30 33 34 35 38 35 32 26 22 24 22 17 18 17 19 22
37 37 38 39 41 41 43 44 44 45 48 45 42 49 48 44 39 39 35 33 33 35 37 44 47 46 46 40 36 30 27 28 29 28 33 34 36 28 31 23 17 24 22 23 20 21 28
38 38 38 41 42 44 43 43 43 46 46 46 43 47 46 43 46 40 35 32 35 39 40 43 44 42 47 39 33 28 28 29 28 29 28 29 31 28 26 20 26 31 25 25 15 23 30
39 39 38 41 42 43 44 45 46 47 47 47 43 46 46 44 44 48 37 33 35 42 39 44 40 45 44 35 33 35 30 29 31 35 32 29 28 28 34 29 22 27 24 23 32 34 34
39 40 41 43 42 44 44 46 46 47 47 46 40 44 47 44 45 48 51 50 40 43 43 46 39 40 41 37 41 39 34 35 32 28 35 29 34 30 32 31 35 35 36 38 38 37 37